Wetterdaten: Mittwoch, 16.11.2022
Datum Zeit Temp. Aussen Temp. o. S. Temp +5cm Feuchte Auss Luftdruck Regen Sonnenschein Regendauer Solar Windben Empfang
16.11.2022 00:00 11,4 C 10,6 C 7,2 C 97 % 1000,2 hPa 0,0 l/m 0 min 2 min 0 W/m 16,1 km/h (3 Bft) 95,74 %
16.11.2022 00:02 11,3 C 10,6 C 7,2 C 97 % 1000,2 hPa 0,0 l/m 0 min 0 min 0 W/m 22,5 km/h (4 Bft) 97,44 %
16.11.2022 00:04 11,3 C 10,6 C 7,2 C 98 % 1000,2 hPa 0,0 l/m 0 min 2 min 0 W/m 19,3 km/h (3 Bft) 97,87 %
16.11.2022 00:08 11,3 C 10,6 C 7,2 C 98 % 1000,2 hPa 0,0 l/m 0 min 4 min 0 W/m 19,3 km/h (3 Bft) 96,84 %
16.11.2022 00:10 11,3 C 10,6 C 7,2 C 98 % 1000,2 hPa 0,2 l/m 0 min 2 min 0 W/m 16,1 km/h (3 Bft) 97,87 %
16.11.2022 00:12 11,3 C 10,6 C 7,2 C 98 % 1000,1 hPa 0,0 l/m 0 min 2 min 0 W/m 22,5 km/h (4 Bft) 97,87 %
16.11.2022 00:14 11,3 C 10,6 C 7,2 C 98 % 1000,1 hPa 0,0 l/m 0 min 2 min 0 W/m 12,9 km/h (3 Bft) 97,87 %
16.11.2022 00:16 11,3 C 10,6 C 7,2 C 98 % 1000,1 hPa 0,0 l/m 0 min 2 min 0 W/m 6,4 km/h (2 Bft) 95,74 %
16.11.2022 00:18 11,3 C 10,6 C 7,2 C 98 % 1000,1 hPa 0,0 l/m 0 min 2 min 0 W/m 6,4 km/h (2 Bft) 95,74 %
16.11.2022 00:20 11,3 C 10,6 C 7,2 C 98 % 1000,0 hPa 0,0 l/m 0 min 2 min 0 W/m 12,9 km/h (3 Bft) 97,83 %
16.11.2022 00:22 11,3 C 10,6 C 7,2 C 98 % 1000,1 hPa 0,0 l/m 0 min 2 min 0 W/m 6,4 km/h (2 Bft) 95,74 %
16.11.2022 00:24 11,3 C 10,6 C 7,2 C 98 % 1000,1 hPa 0,2 l/m 0 min 2 min 0 W/m 12,9 km/h (3 Bft) 95,74 %
16.11.2022 00:26 11,3 C 10,6 C 7,2 C 98 % 1000,0 hPa 0,0 l/m 0 min 2 min 0 W/m 12,9 km/h (3 Bft) 95,74 %
16.11.2022 00:28 11,3 C 10,6 C 7,2 C 98 % 1000,0 hPa 0,0 l/m 0 min 2 min 0 W/m 12,9 km/h (3 Bft) 93,62 %
16.11.2022 00:30 11,3 C 10,6 C 7,2 C 98 % 1000,0 hPa 0,0 l/m 0 min 2 min 0 W/m 19,3 km/h (3 Bft) 82,98 %
16.11.2022 00:32 11,3 C 10,6 C 7,2 C 98 % 1000,0 hPa 0,0 l/m 0 min 2 min 0 W/m 12,9 km/h (3 Bft) 50,00 %
16.11.2022 00:34 11,3 C 10,6 C 7,2 C 98 % 1000,0 hPa 0,0 l/m 0 min 2 min 0 W/m 12,9 km/h (3 Bft) 95,74 %
16.11.2022 00:36 11,3 C 10,6 C 7,2 C 98 % 999,9 hPa 0,0 l/m 0 min 2 min 0 W/m 12,9 km/h (3 Bft) 95,74 %
16.11.2022 00:38 11,3 C 10,6 C 7,2 C 98 % 999,9 hPa 0,0 l/m 0 min 2 min 0 W/m 12,9 km/h (3 Bft) 93,62 %
16.11.2022 00:40 11,3 C 10,6 C 7,2 C 98 % 999,9 hPa 0,0 l/m 0 min 2 min 0 W/m 16,1 km/h (3 Bft) 91,49 %
16.11.2022 00:42 11,3 C 10,6 C 7,2 C 98 % 999,9 hPa 0,2 l/m 0 min 2 min 0 W/m 9,7 km/h (2 Bft) 93,62 %
16.11.2022 00:44 11,3 C 10,6 C 7,2 C 98 % 999,9 hPa 0,0 l/m 0 min 2 min 0 W/m 12,9 km/h (3 Bft) 95,65 %
16.11.2022 00:46 11,3 C 10,6 C 7,2 C 98 % 999,9 hPa 0,0 l/m 0 min 2 min 0 W/m 12,9 km/h (3 Bft) 100,00 %
16.11.2022 00:48 11,3 C 10,6 C 7,2 C 98 % 999,9 hPa 0,0 l/m 0 min 2 min 0 W/m 12,9 km/h (3 Bft) 93,62 %
16.11.2022 00:50 11,3 C 10,6 C 7,2 C 98 % 999,9 hPa 0,0 l/m 0 min 2 min 0 W/m 6,4 km/h (2 Bft) 95,74 %
16.11.2022 00:52 11,3 C 10,6 C 7,2 C 98 % 999,9 hPa 0,2 l/m 0 min 2 min 0 W/m 19,3 km/h (3 Bft) 95,74 %
16.11.2022 00:54 11,3 C 10,6 C 7,2 C 98 % 999,9 hPa 0,0 l/m 0 min 2 min 0 W/m 16,1 km/h (3 Bft) 95,74 %
16.11.2022 00:56 11,3 C 10,6 C 7,2 C 98 % 999,8 hPa 0,0 l/m 0 min 2 min 0 W/m 9,7 km/h (2 Bft) 97,83 %
16.11.2022 00:58 11,3 C 10,6 C 7,2 C 98 % 999,8 hPa 0,0 l/m 0 min 2 min 0 W/m 12,9 km/h (3 Bft) 100,00 %
16.11.2022 01:00 11,3 C 10,6 C 7,2 C 98 % 999,8 hPa 0,0 l/m 0 min 2 min 0 W/m 16,1 km/h (3 Bft) 97,87 %
16.11.2022 01:02 11,3 C 10,6 C 7,2 C 98 % 999,8 hPa 0,0 l/m 0 min 2 min 0 W/m 12,9 km/h (3 Bft) 97,87 %
16.11.2022 01:04 11,3 C 10,6 C 7,8 C 98 % 999,7 hPa 0,0 l/m 0 min 2 min 0 W/m 16,1 km/h (3 Bft) 100,00 %
16.11.2022 01:06 11,3 C 10,6 C 7,2 C 98 % 999,7 hPa 0,0 l/m 0 min 2 min 0 W/m 16,1 km/h (3 Bft) 97,87 %
16.11.2022 01:08 11,3 C 10,6 C 7,2 C 98 % 999,7 hPa 0,0 l/m 0 min 2 min 0 W/m 12,9 km/h (3 Bft) 97,83 %
16.11.2022 01:10 11,3 C 10,6 C 7,2 C 98 % 999,6 hPa 0,2 l/m 0 min 2 min 0 W/m 9,7 km/h (2 Bft) 97,87 %
16.11.2022 01:12 11,3 C 10,6 C 7,2 C 98 % 999,6 hPa 0,0 l/m 0 min 2 min 0 W/m 16,1 km/h (3 Bft) 95,74 %
16.11.2022 01:14 11,3 C 10,6 C 7,8 C 98 % 999,6 hPa 0,0 l/m 0 min 2 min 0 W/m 19,3 km/h (3 Bft) 97,87 %
16.11.2022 01:16 11,3 C 10,6 C 7,8 C 98 % 999,6 hPa 0,0 l/m 0 min 2 min 0 W/m 16,1 km/h (3 Bft) 97,87 %
16.11.2022 01:18 11,3 C 10,6 C 7,8 C 98 % 999,6 hPa 0,2 l/m 0 min 2 min 0 W/m 12,9 km/h (3 Bft) 95,65 %
16.11.2022 01:20 11,3 C 10,6 C 7,8 C 98 % 999,6 hPa 0,0 l/m 0 min 2 min 0 W/m 19,3 km/h (3 Bft) 95,74 %
16.11.2022 01:22 11,3 C 10,6 C 7,8 C 98 % 999,6 hPa 0,0 l/m 0 min 2 min 0 W/m 12,9 km/h (3 Bft) 97,87 %
16.11.2022 01:24 11,3 C 10,6 C 7,8 C 98 % 999,6 hPa 0,0 l/m 0 min 2 min 0 W/m 6,4 km/h (2 Bft) 95,74 %
16.11.2022 01:26 11,3 C 10,6 C 7,8 C 98 % 999,5 hPa 0,0 l/m 0 min 2 min 0 W/m 6,4 km/h (2 Bft) 93,62 %
16.11.2022 01:28 11,3 C 10,6 C 7,8 C 98 % 999,5 hPa 0,0 l/m 0 min 2 min 0 W/m 12,9 km/h (3 Bft) 95,74 %
16.11.2022 01:30 11,3 C 10,6 C 7,8 C 98 % 999,5 hPa 0,0 l/m 0 min 2 min 0 W/m 6,4 km/h (2 Bft) 95,65 %
16.11.2022 01:32 11,3 C 10,6 C 7,8 C 98 % 999,5 hPa 0,2 l/m 0 min 2 min 0 W/m 6,4 km/h (2 Bft) 95,74 %
16.11.2022 01:34 11,3 C 10,6 C 7,8 C 98 % 999,6 hPa 0,0 l/m 0 min 2 min 0 W/m 9,7 km/h (2 Bft) 97,87 %
16.11.2022 01:36 11,3 C 10,6 C 7,8 C 98 % 999,6 hPa 0,0 l/m 0 min 2 min 0 W/m 9,7 km/h (2 Bft) 95,74 %
16.11.2022 01:38 11,3 C 10,6 C 7,8 C 98 % 999,5 hPa 0,0 l/m 0 min 2 min 0 W/m 16,1 km/h (3 Bft) 97,87 %
16.11.2022 01:40 11,3 C 10,6 C 7,8 C 98 % 999,6 hPa 0,0 l/m 0 min 2 min 0 W/m 16,1 km/h (3 Bft) 97,87 %
16.11.2022 01:42 11,3 C 10,6 C 7,8 C 98 % 999,5 hPa 0,2 l/m 0 min 2 min 0 W/m 12,9 km/h (3 Bft) 93,48 %
16.11.2022 01:44 11,3 C 10,6 C 7,8 C 98 % 999,5 hPa 0,0 l/m 0 min 2 min 0 W/m 19,3 km/h (3 Bft) 95,74 %
16.11.2022 01:46 11,3 C 10,6 C 7,8 C 98 % 999,4 hPa 0,0 l/m 0 min 2 min 0 W/m 16,1 km/h (3 Bft) 97,87 %
16.11.2022 01:48 11,3 C 10,6 C 7,8 C 98 % 999,5 hPa 0,0 l/m 0 min 2 min 0 W/m 12,9 km/h (3 Bft) 97,87 %
16.11.2022 01:50 11,3 C 10,6 C 7,8 C 98 % 999,5 hPa 0,0 l/m 0 min 2 min 0 W/m 6,4 km/h (2 Bft) 97,87 %
16.11.2022 01:52 11,3 C 10,6 C 7,8 C 98 % 999,5 hPa 0,0 l/m 0 min 2 min 0 W/m 19,3 km/h (3 Bft) 97,87 %
16.11.2022 01:54 11,3 C 10,6 C 7,8 C 98 % 999,5 hPa 0,0 l/m 0 min 2 min 0 W/m 12,9 km/h (3 Bft) 97,83 %
16.11.2022 01:56 11,2 C 10,6 C 7,8 C 98 % 999,5 hPa 0,2 l/m 0 min 2 min 0 W/m 19,3 km/h (3 Bft) 97,87 %
16.11.2022 01:58 11,2 C 10,6 C 7,8 C 98 % 999,5 hPa 0,0 l/m 0 min 2 min 0 W/m 22,5 km/h (4 Bft) 100,00 %
16.11.2022 02:00 11,3 C 10,6 C 7,8 C 98 % 999,5 hPa 0,0 l/m 0 min 2 min 0 W/m 16,1 km/h (3 Bft) 100,00 %
16.11.2022 02:02 11,2 C 10,6 C 7,8 C 98 % 999,5 hPa 0,2 l/m 0 min 2 min 0 W/m 16,1 km/h (3 Bft) 97,87 %
16.11.2022 02:04 11,2 C 10,6 C 7,8 C 98 % 999,5 hPa 0,0 l/m 0 min 2 min 0 W/m 12,9 km/h (3 Bft) 100,00 %
16.11.2022 02:06 11,2 C 10,6 C 7,8 C 98 % 999,5 hPa 0,0 l/m 0 min 2 min 0 W/m 16,1 km/h (3 Bft) 100,00 %
16.11.2022 02:08 11,2 C 10,6 C 7,8 C 98 % 999,5 hPa 0,0 l/m 0 min 2 min 0 W/m 22,5 km/h (4 Bft) 95,74 %
16.11.2022 02:10 11,2 C 10,6 C 7,8 C 98 % 999,5 hPa 0,2 l/m 0 min 2 min 0 W/m 16,1 km/h (3 Bft) 100,00 %
16.11.2022 02:12 11,2 C 10,6 C 7,8 C 98 % 999,4 hPa 0,0 l/m 0 min 2 min 0 W/m 12,9 km/h (3 Bft) 93,62 %
16.11.2022 02:14 11,2 C 10,6 C 7,8 C 98 % 999,5 hPa 0,2 l/m 0 min 2 min 0 W/m 19,3 km/h (3 Bft) 97,87 %
16.11.2022 02:16 11,2 C 10,6 C 7,8 C 98 % 999,5 hPa 0,0 l/m 0 min 2 min 0 W/m 6,4 km/h (2 Bft) 100,00 %
16.11.2022 02:18 11,2 C 10,6 C 7,8 C 98 % 999,5 hPa 0,0 l/m 0 min 2 min 0 W/m 16,1 km/h (3 Bft) 97,78 %
16.11.2022 02:20 11,2 C 10,6 C 7,8 C 98 % 999,6 hPa 0,2 l/m 0 min 2 min 0 W/m 16,1 km/h (3 Bft) 97,87 %
16.11.2022 02:22 11,2 C 10,6 C 7,8 C 98 % 999,6 hPa 0,0 l/m 0 min 2 min 0 W/m 19,3 km/h (3 Bft) 97,87 %
16.11.2022 02:24 11,2 C 10,6 C 7,8 C 98 % 999,6 hPa 0,2 l/m 0 min 2 min 0 W/m 12,9 km/h (3 Bft) 95,74 %
16.11.2022 02:26 11,2 C 10,6 C 7,8 C 98 % 999,6 hPa 0,0 l/m 0 min 2 min 0 W/m 12,9 km/h (3 Bft) 95,74 %
16.11.2022 02:28 11,2 C 10,6 C 7,8 C 98 % 999,6 hPa 0,2 l/m 0 min 2 min 0 W/m 6,4 km/h (2 Bft) 93,62 %
16.11.2022 02:30 11,2 C 10,6 C 7,8 C 98 % 999,6 hPa 0,0 l/m 0 min 2 min 0 W/m 12,9 km/h (3 Bft) 95,65 %
16.11.2022 02:32 11,2 C 10,0 C 7,8 C 98 % 999,6 hPa 0,2 l/m 0 min 2 min 0 W/m 12,9 km/h (3 Bft) 95,74 %
16.11.2022 02:34 11,2 C 10,0 C 7,8 C 98 % 999,6 hPa 0,0 l/m 0 min 2 min 0 W/m 12,9 km/h (3 Bft) 95,74 %
16.11.2022 02:36 11,2 C 10,0 C 7,8 C 98 % 999,5 hPa 0,2 l/m 0 min 2 min 0 W/m 12,9 km/h (3 Bft) 85,11 %
16.11.2022 02:38 11,2 C 10,0 C 7,8 C 98 % 999,5 hPa 0,0 l/m 0 min 2 min 0 W/m 6,4 km/h (2 Bft) 21,05 %
16.11.2022 02:40 11,2 C 10,0 C 7,8 C 98 % 999,5 hPa 0,0 l/m 0 min 2 min 0 W/m 6,4 km/h (2 Bft) 95,65 %
16.11.2022 02:42 11,2 C 10,0 C 7,8 C 98 % 999,4 hPa 0,2 l/m 0 min 2 min 0 W/m 16,1 km/h (3 Bft) 93,62 %
16.11.2022 02:44 11,2 C 10,0 C 7,8 C 98 % 999,4 hPa 0,0 l/m 0 min 2 min 0 W/m 12,9 km/h (3 Bft) 95,74 %
16.11.2022 02:46 11,2 C 10,0 C 7,8 C 98 % 999,4 hPa 0,0 l/m 0 min 2 min 0 W/m 16,1 km/h (3 Bft) 95,74 %
16.11.2022 02:48 11,2 C 10,0 C 7,8 C 98 % 999,4 hPa 0,0 l/m 0 min 2 min 0 W/m 16,1 km/h (3 Bft) 95,74 %
16.11.2022 02:50 11,2 C 10,0 C 7,8 C 98 % 999,4 hPa 0,0 l/m 0 min 2 min 0 W/m 12,9 km/h (3 Bft) 95,74 %
16.11.2022 02:52 11,2 C 10,0 C 7,8 C 98 % 999,3 hPa 0,2 l/m 0 min 2 min 0 W/m 12,9 km/h (3 Bft) 95,74 %
16.11.2022 02:54 11,2 C 10,0 C 7,8 C 98 % 999,3 hPa 0,0 l/m 0 min 2 min 0 W/m 6,4 km/h (2 Bft) 97,83 %
16.11.2022 02:56 11,2 C 10,0 C 7,8 C 98 % 999,2 hPa 0,0 l/m 0 min 2 min 0 W/m 19,3 km/h (3 Bft) 95,74 %
16.11.2022 02:58 11,2 C 10,0 C 7,8 C 98 % 999,1 hPa 0,2 l/m 0 min 2 min 0 W/m 9,7 km/h (2 Bft) 93,62 %
16.11.2022 03:00 11,1 C 10,0 C 7,8 C 98 % 999,1 hPa 0,0 l/m 0 min 2 min 0 W/m 6,4 km/h (2 Bft) 85,11 %
16.11.2022 03:02 11,2 C 10,0 C 7,8 C 98 % 999,2 hPa 0,0 l/m 0 min 2 min 0 W/m 19,3 km/h (3 Bft) 87,23 %
16.11.2022 03:04 11,2 C 10,0 C 7,8 C 98 % 999,2 hPa 0,0 l/m 0 min 2 min 0 W/m 6,4 km/h (2 Bft) 93,62 %
16.11.2022 03:06 11,1 C 10,0 C 7,8 C 98 % 999,2 hPa 0,0 l/m 0 min 2 min 0 W/m 12,9 km/h (3 Bft) 95,65 %
16.11.2022 03:08 11,1 C 10,0 C 7,8 C 98 % 999,2 hPa 0,0 l/m 0 min 2 min 0 W/m 16,1 km/h (3 Bft) 93,62 %
16.11.2022 03:10 11,1 C 10,0 C 7,8 C 98 % 999,3 hPa 0,2 l/m 0 min 2 min 0 W/m 12,9 km/h (3 Bft) 87,23 %
16.11.2022 03:12 11,1 C 10,0 C 7,8 C 99 % 999,2 hPa 0,0 l/m 0 min 2 min 0 W/m 6,4 km/h (2 Bft) 97,87 %
16.11.2022 03:14 11,1 C 10,0 C 7,8 C 98 % 999,2 hPa 0,0 l/m 0 min 2 min 0 W/m 19,3 km/h (3 Bft) 85,11 %
16.11.2022 03:16 11,1 C 10,0 C 7,8 C 98 % 999,2 hPa 0,0 l/m 0 min 2 min 0 W/m 6,4 km/h (2 Bft) 97,83 %
16.11.2022 03:18 11,1 C 10,0 C 7,8 C 99 % 999,2 hPa 0,0 l/m 0 min 2 min 0 W/m 16,1 km/h (3 Bft) 100,00 %
16.11.2022 03:20 11,1 C 10,0 C 7,8 C 99 % 999,1 hPa 0,0 l/m 0 min 2 min 0 W/m 6,4 km/h (2 Bft) 89,36 %
16.11.2022 03:22 11,1 C 10,0 C 7,8 C 98 % 999,1 hPa 0,0 l/m 0 min 2 min 0 W/m 6,4 km/h (2 Bft) 97,87 %
16.11.2022 03:24 11,1 C 10,0 C 7,8 C 98 % 999,1 hPa 0,0 l/m 0 min 2 min 0 W/m 19,3 km/h (3 Bft) 93,62 %
16.11.2022 03:26 11,1 C 10,0 C 7,8 C 98 % 999,1 hPa 0,2 l/m 0 min 2 min 0 W/m 9,7 km/h (2 Bft) 82,98 %
16.11.2022 03:28 11,1 C 10,0 C 7,8 C 98 % 999,1 hPa 0,0 l/m 0 min 2 min 0 W/m 9,7 km/h (2 Bft) 69,57 %
16.11.2022 03:30 11,1 C 10,0 C 7,8 C 98 % 999,0 hPa 0,0 l/m 0 min 2 min 0 W/m 6,4 km/h (2 Bft) 68,09 %
16.11.2022 03:32 11,1 C 10,0 C 7,8 C 98 % 999,0 hPa 0,0 l/m 0 min 2 min 0 W/m 12,9 km/h (3 Bft) 76,60 %
16.11.2022 03:34 11,1 C 10,0 C 7,8 C 98 % 999,0 hPa 0,0 l/m 0 min 2 min 0 W/m 16,1 km/h (3 Bft) 72,34 %
16.11.2022 03:36 11,1 C 10,0 C 7,8 C 99 % 999,0 hPa 0,0 l/m 0 min 2 min 0 W/m 12,9 km/h (3 Bft) 53,19 %
16.11.2022 03:38 11,1 C 10,0 C 7,8 C 99 % 999,0 hPa 0,0 l/m 0 min 2 min 0 W/m 6,4 km/h (2 Bft) 27,66 %
16.11.2022 03:40 11,1 C 10,0 C 7,8 C 99 % 999,0 hPa 0,0 l/m 0 min 2 min 0 W/m 6,4 km/h (2 Bft) 34,78 %
16.11.2022 03:42 11,1 C 10,0 C 7,8 C 98 % 998,9 hPa 0,0 l/m 0 min 2 min 0 W/m 6,4 km/h (2 Bft) 44,68 %
16.11.2022 03:44 11,1 C 10,0 C 7,8 C 98 % 998,9 hPa 0,0 l/m 0 min 2 min 0 W/m 12,9 km/h (3 Bft) 85,11 %
16.11.2022 03:46 11,1 C 10,0 C 7,8 C 99 % 999,0 hPa 0,0 l/m 0 min 2 min 0 W/m 19,3 km/h (3 Bft) 100,00 %
16.11.2022 03:48 11,2 C 10,0 C 7,8 C 99 % 999,0 hPa 0,0 l/m 0 min 2 min 0 W/m 19,3 km/h (3 Bft) 97,87 %
16.11.2022 03:50 11,1 C 10,0 C 7,8 C 99 % 999,0 hPa 0,2 l/m 0 min 2 min 0 W/m 9,7 km/h (2 Bft) 97,87 %
16.11.2022 03:52 11,1 C 10,0 C 7,8 C 99 % 999,0 hPa 0,0 l/m 0 min 2 min 0 W/m 12,9 km/h (3 Bft) 100,00 %
16.11.2022 03:54 11,1 C 10,0 C 7,8 C 99 % 998,9 hPa 0,0 l/m 0 min 2 min 0 W/m 6,4 km/h (2 Bft) 95,74 %
16.11.2022 03:56 11,1 C 10,0 C 7,8 C 99 % 998,8 hPa 0,0 l/m 0 min 2 min 0 W/m 19,3 km/h (3 Bft) 91,49 %
16.11.2022 03:58 11,1 C 10,0 C 7,8 C 99 % 998,9 hPa 0,0 l/m 0 min 2 min 0 W/m 16,1 km/h (3 Bft) 87,23 %
16.11.2022 04:00 11,1 C 10,0 C 7,8 C 99 % 998,8 hPa 0,2 l/m 0 min 2 min 0 W/m 16,1 km/h (3 Bft) 78,72 %
16.11.2022 04:05 11,1 C 10,0 C 7,8 C 99 % 998,8 hPa 0,0 l/m 0 min 5 min 0 W/m 6,4 km/h (2 Bft) 82,81 %
16.11.2022 04:06 11,1 C 10,0 C 7,8 C 99 % 998,7 hPa 0,0 l/m 0 min 1 min 0 W/m 6,4 km/h (2 Bft) 86,96 %
16.11.2022 04:08 11,1 C 10,0 C 7,8 C 99 % 998,7 hPa 0,0 l/m 0 min 2 min 0 W/m 12,9 km/h (3 Bft) 95,74 %
16.11.2022 04:10 11,1 C 10,0 C 7,8 C 99 % 998,7 hPa 0,0 l/m 0 min 2 min 0 W/m 6,4 km/h (2 Bft) 95,74 %
16.11.2022 04:12 11,1 C 10,0 C 7,8 C 99 % 998,7 hPa 0,0 l/m 0 min 2 min 0 W/m 6,4 km/h (2 Bft) 74,47 %
16.11.2022 04:14 11,1 C 10,0 C 7,8 C 99 % 998,7 hPa 0,0 l/m 0 min 2 min 0 W/m 6,4 km/h (2 Bft) 78,72 %
16.11.2022 04:16 11,1 C 10,0 C 7,8 C 99 % 998,8 hPa 0,0 l/m 0 min 2 min 0 W/m 6,4 km/h (2 Bft) 91,30 %
16.11.2022 04:18 11,1 C 10,0 C 7,8 C 99 % 998,8 hPa 0,0 l/m 0 min 2 min 0 W/m 6,4 km/h (2 Bft) 76,60 %
16.11.2022 04:20 11,1 C 10,0 C 7,8 C 99 % 998,7 hPa 0,2 l/m 0 min 2 min 0 W/m 9,7 km/h (2 Bft) 42,55 %
16.11.2022 04:22 11,1 C 10,0 C 7,8 C 99 % 998,7 hPa 0,0 l/m 0 min 2 min 0 W/m 6,4 km/h (2 Bft) 61,70 %
16.11.2022 04:24 11,1 C 10,0 C 7,8 C 99 % 998,8 hPa 0,0 l/m 0 min 2 min 0 W/m 6,4 km/h (2 Bft) 76,60 %
16.11.2022 04:26 11,1 C 10,0 C 7,8 C 99 % 998,8 hPa 0,0 l/m 0 min 2 min 0 W/m 12,9 km/h (3 Bft) 87,23 %
16.11.2022 04:28 11,1 C 10,0 C 7,8 C 99 % 998,9 hPa 0,0 l/m 0 min 2 min 0 W/m 6,4 km/h (2 Bft) 95,65 %
16.11.2022 04:30 11,1 C 10,0 C 7,8 C 99 % 998,8 hPa 0,0 l/m 0 min 2 min 0 W/m 9,7 km/h (2 Bft) 95,74 %
16.11.2022 04:32 11,1 C 10,0 C 7,8 C 99 % 998,8 hPa 0,0 l/m 0 min 2 min 0 W/m 6,4 km/h (2 Bft) 89,36 %
16.11.2022 04:34 11,1 C 10,0 C 7,8 C 99 % 998,9 hPa 0,0 l/m 0 min 2 min 0 W/m 6,4 km/h (2 Bft) 78,72 %
16.11.2022 04:36 11,1 C 10,0 C 7,8 C 99 % 999,0 hPa 0,0 l/m 0 min 2 min 0 W/m 6,4 km/h (2 Bft) 91,49 %
16.11.2022 04:38 11,1 C 10,0 C 7,8 C 99 % 999,0 hPa 0,0 l/m 0 min 2 min 0 W/m 12,9 km/h (3 Bft) 93,62 %
16.11.2022 04:40 11,1 C 10,0 C 7,8 C 99 % 999,0 hPa 0,0 l/m 0 min 0 min 0 W/m 6,4 km/h (2 Bft) 95,65 %
16.11.2022 04:42 11,1 C 10,0 C 7,8 C 99 % 999,1 hPa 0,0 l/m 0 min 2 min 0 W/m 3,2 km/h (1 Bft) 35,48 %
16.11.2022 04:44 11,1 C 10,0 C 7,8 C 99 % 999,1 hPa 0,0 l/m 0 min 2 min 0 W/m 16,1 km/h (3 Bft) 94,59 %
16.11.2022 04:46 11,1 C 10,0 C 7,8 C 99 % 999,0 hPa 0,0 l/m 0 min 0 min 0 W/m 6,4 km/h (2 Bft) 93,62 %
16.11.2022 04:48 11,1 C 10,0 C 7,8 C 99 % 999,1 hPa 0,0 l/m 0 min 2 min 0 W/m 6,4 km/h (2 Bft) 97,87 %
16.11.2022 04:50 11,1 C 10,0 C 7,8 C 99 % 999,1 hPa 0,2 l/m 0 min 0 min 0 W/m 6,4 km/h (2 Bft) 91,49 %
16.11.2022 04:52 11,1 C 10,0 C 7,8 C 99 % 999,2 hPa 0,0 l/m 0 min 2 min 0 W/m 3,2 km/h (1 Bft) 76,09 %
16.11.2022 04:54 11,1 C 10,0 C 7,8 C 99 % 999,2 hPa 0,0 l/m 0 min 2 min 0 W/m 9,7 km/h (2 Bft) 82,98 %
16.11.2022 04:56 11,1 C 10,0 C 7,8 C 99 % 999,2 hPa 0,0 l/m 0 min 0 min 0 W/m 12,9 km/h (3 Bft) 91,49 %
16.11.2022 04:58 11,1 C 10,0 C 7,8 C 99 % 999,2 hPa 0,0 l/m 0 min 0 min 0 W/m 12,9 km/h (3 Bft) 100,00 %
16.11.2022 05:00 11,1 C 10,0 C 7,8 C 99 % 999,2 hPa 0,0 l/m 0 min 0 min 0 W/m 6,4 km/h (2 Bft) 95,74 %
16.11.2022 05:02 11,1 C 10,0 C 7,8 C 99 % 999,2 hPa 0,0 l/m 0 min 0 min 0 W/m 16,1 km/h (3 Bft) 91,49 %
16.11.2022 05:04 11,1 C 10,0 C 7,8 C 99 % 999,2 hPa 0,0 l/m 0 min 0 min 0 W/m 6,4 km/h (2 Bft) 97,83 %
16.11.2022 05:06 11,1 C 10,0 C 7,8 C 99 % 999,2 hPa 0,0 l/m 0 min 0 min 0 W/m 9,7 km/h (2 Bft) 95,74 %
16.11.2022 05:08 11,0 C 10,0 C 7,8 C 99 % 999,3 hPa 0,0 l/m 0 min 0 min 0 W/m 12,9 km/h (3 Bft) 91,49 %
16.11.2022 05:10 11,0 C 10,0 C 7,8 C 99 % 999,2 hPa 0,0 l/m 0 min 0 min 0 W/m 12,9 km/h (3 Bft) 91,49 %
16.11.2022 05:12 11,0 C 10,0 C 7,8 C 99 % 999,3 hPa 0,0 l/m 0 min 0 min 0 W/m 6,4 km/h (2 Bft) 93,62 %
16.11.2022 05:14 11,0 C 10,0 C 7,8 C 99 % 999,2 hPa 0,0 l/m 0 min 2 min 0 W/m 6,4 km/h (2 Bft) 70,21 %
16.11.2022 05:16 11,0 C 10,0 C 7,8 C 99 % 999,2 hPa 0,0 l/m 0 min 2 min 0 W/m 6,4 km/h (2 Bft) 91,30 %
16.11.2022 05:18 11,0 C 10,0 C 7,8 C 99 % 999,2 hPa 0,0 l/m 0 min 2 min 0 W/m 12,9 km/h (3 Bft) 97,87 %
16.11.2022 05:20 11,0 C 10,0 C 7,8 C 99 % 999,2 hPa 0,0 l/m 0 min 0 min 0 W/m 12,9 km/h (3 Bft) 87,23 %
16.11.2022 05:22 11,0 C 10,0 C 7,8 C 99 % 999,3 hPa 0,0 l/m 0 min 0 min 0 W/m 6,4 km/h (2 Bft) 93,62 %
16.11.2022 05:24 11,0 C 10,0 C 7,8 C 99 % 999,3 hPa 0,0 l/m 0 min 0 min 0 W/m 12,9 km/h (3 Bft) 80,85 %
16.11.2022 05:26 11,0 C 10,0 C 7,8 C 99 % 999,3 hPa 0,0 l/m 0 min 2 min 0 W/m 6,4 km/h (2 Bft) 91,30 %
16.11.2022 05:28 11,0 C 10,0 C 7,8 C 99 % 999,3 hPa 0,0 l/m 0 min 2 min 0 W/m 9,7 km/h (2 Bft) 34,04 %
16.11.2022 05:30 11,0 C 10,0 C 7,8 C 99 % 999,4 hPa 0,0 l/m 0 min 0 min 0 W/m 16,1 km/h (3 Bft) 51,06 %
16.11.2022 05:32 11,0 C 10,0 C 7,8 C 99 % 999,4 hPa 0,0 l/m 0 min 2 min 0 W/m 12,9 km/h (3 Bft) 72,34 %
16.11.2022 05:34 11,0 C 10,0 C 7,8 C 99 % 999,4 hPa 0,0 l/m 0 min 0 min 0 W/m 16,1 km/h (3 Bft) 97,14 %
16.11.2022 05:36 10,9 C 10,0 C 7,8 C 99 % 999,4 hPa 0,0 l/m 0 min 2 min 0 W/m 6,4 km/h (2 Bft) 98,31 %
16.11.2022 05:38 10,9 C 10,0 C 7,8 C 99 % 999,4 hPa 0,0 l/m 0 min 2 min 0 W/m 12,9 km/h (3 Bft) 89,36 %
16.11.2022 05:40 10,9 C 10,0 C 7,8 C 99 % 999,4 hPa 0,0 l/m 0 min 0 min 0 W/m 9,7 km/h (2 Bft) 93,48 %
16.11.2022 05:42 10,9 C 10,0 C 7,8 C 99 % 999,5 hPa 0,0 l/m 0 min 0 min 0 W/m 6,4 km/h (2 Bft) 93,62 %
16.11.2022 05:44 10,9 C 10,0 C 7,8 C 99 % 999,4 hPa 0,0 l/m 0 min 0 min 0 W/m 6,4 km/h (2 Bft) 97,87 %
16.11.2022 05:46 10,9 C 10,0 C 7,8 C 99 % 999,3 hPa 0,0 l/m 0 min 0 min 0 W/m 3,2 km/h (1 Bft) 91,49 %
16.11.2022 05:48 10,9 C 10,0 C 7,8 C 99 % 999,3 hPa 0,0 l/m 0 min 2 min 0 W/m 12,9 km/h (3 Bft) 97,87 %
16.11.2022 05:50 10,9 C 10,0 C 7,8 C 99 % 999,3 hPa 0,0 l/m 0 min 0 min 0 W/m 9,7 km/h (2 Bft) 100,00 %
16.11.2022 05:52 10,9 C 10,0 C 7,8 C 99 % 999,4 hPa 0,0 l/m 0 min 0 min 0 W/m 12,9 km/h (3 Bft) 100,00 %
16.11.2022 05:54 10,9 C 10,0 C 7,8 C 99 % 999,4 hPa 0,0 l/m 0 min 2 min 0 W/m 9,7 km/h (2 Bft) 97,87 %
16.11.2022 05:56 10,9 C 10,0 C 7,8 C 99 % 999,4 hPa 0,0 l/m 0 min 0 min 0 W/m 6,4 km/h (2 Bft) 100,00 %
16.11.2022 05:58 10,9 C 10,0 C 7,8 C 99 % 999,5 hPa 0,0 l/m 0 min 0 min 0 W/m 9,7 km/h (2 Bft) 91,53 %
16.11.2022 06:00 10,8 C 10,0 C 7,8 C 99 % 999,5 hPa 0,0 l/m 0 min 0 min 0 W/m 9,7 km/h (2 Bft) 82,98 %
16.11.2022 06:02 10,8 C 10,0 C 7,8 C 99 % 999,5 hPa 0,0 l/m 0 min 0 min 0 W/m 9,7 km/h (2 Bft) 82,61 %
16.11.2022 06:04 10,8 C 10,0 C 7,8 C 99 % 999,5 hPa 0,0 l/m 0 min 0 min 0 W/m 9,7 km/h (2 Bft) 58,33 %
16.11.2022 06:08 10,8 C 10,0 C 7,8 C 99 % 999,5 hPa 0,0 l/m 0 min 0 min 0 W/m 12,9 km/h (3 Bft) 93,62 %
16.11.2022 06:10 10,8 C 10,0 C 7,8 C 99 % 999,5 hPa 0,0 l/m 0 min 0 min 0 W/m 16,1 km/h (3 Bft) 95,74 %
16.11.2022 06:12 10,8 C 10,0 C 7,8 C 99 % 999,5 hPa 0,0 l/m 0 min 0 min 0 W/m 3,2 km/h (1 Bft) 38,30 %
16.11.2022 06:14 10,7 C 10,0 C 7,8 C 99 % 999,6 hPa 0,0 l/m 0 min 0 min 0 W/m 16,1 km/h (3 Bft) 23,91 %
16.11.2022 06:16 10,7 C 10,0 C 7,8 C 99 % 999,6 hPa 0,0 l/m 0 min 0 min 0 W/m 9,7 km/h (2 Bft) 63,89 %
16.11.2022 06:18 10,7 C 10,0 C 7,8 C 99 % 999,6 hPa 0,0 l/m 0 min 0 min 0 W/m 16,1 km/h (3 Bft) 96,55 %
16.11.2022 06:20 10,7 C 10,0 C 7,2 C 99 % 999,6 hPa 0,0 l/m 0 min 0 min 0 W/m 12,9 km/h (3 Bft) 97,14 %
16.11.2022 06:22 10,7 C 10,0 C 7,2 C 99 % 999,7 hPa 0,0 l/m 0 min 0 min 0 W/m 6,4 km/h (2 Bft) 94,92 %
16.11.2022 06:24 10,7 C 10,0 C 7,2 C 99 % 999,6 hPa 0,0 l/m 0 min 0 min 0 W/m 6,4 km/h (2 Bft) 97,87 %
16.11.2022 06:26 10,7 C 10,0 C 7,2 C 99 % 999,7 hPa 0,0 l/m 0 min 0 min 0 W/m 12,9 km/h (3 Bft) 97,83 %
16.11.2022 06:28 10,7 C 10,0 C 7,2 C 99 % 999,7 hPa 0,0 l/m 0 min 0 min 0 W/m 6,4 km/h (2 Bft) 97,87 %
16.11.2022 06:30 10,7 C 10,0 C 7,2 C 99 % 999,7 hPa 0,0 l/m 0 min 0 min 0 W/m 12,9 km/h (3 Bft) 97,14 %
16.11.2022 06:32 10,7 C 10,0 C 7,2 C 99 % 999,7 hPa 0,0 l/m 0 min 0 min 0 W/m 12,9 km/h (3 Bft) 34,78 %
16.11.2022 06:34 10,7 C 10,0 C 7,2 C 99 % 999,7 hPa 0,0 l/m 0 min 0 min 0 W/m 6,4 km/h (2 Bft) 32,20 %
16.11.2022 06:36 10,7 C 10,0 C 7,2 C 99 % 999,8 hPa 0,0 l/m 0 min 0 min 0 W/m 12,9 km/h (3 Bft) 27,66 %
16.11.2022 06:38 10,7 C 10,0 C 7,2 C 99 % 999,7 hPa 0,0 l/m 0 min 0 min 0 W/m 6,4 km/h (2 Bft) 6,52 %
16.11.2022 06:40 10,7 C 10,0 C 7,2 C 99 % 999,7 hPa 0,0 l/m 0 min 0 min 0 W/m 6,4 km/h (2 Bft) 82,60 %
16.11.2022 06:42 10,7 C 10,0 C 7,2 C 99 % 999,8 hPa 0,0 l/m 0 min 0 min 0 W/m 6,4 km/h (2 Bft) 82,60 %
16.11.2022 06:44 10,7 C 10,0 C 7,2 C 99 % 999,8 hPa 0,0 l/m 0 min 0 min 0 W/m 6,4 km/h (2 Bft) 82,60 %
16.11.2022 06:46 10,7 C 10,0 C 7,2 C 99 % 999,8 hPa 0,0 l/m 0 min 0 min 0 W/m 6,4 km/h (2 Bft) 82,60 %
16.11.2022 06:51 10,6 C 10,0 C 7,2 C 99 % 999,8 hPa 0,0 l/m 0 min 0 min 0 W/m 12,9 km/h (3 Bft) 85,00 %
16.11.2022 06:52 10,6 C 10,0 C 7,2 C 99 % 999,8 hPa 0,0 l/m 0 min 0 min 0 W/m 3,2 km/h (1 Bft) 72,73 %
16.11.2022 06:54 10,6 C 10,0 C 7,2 C 99 % 999,8 hPa 0,0 l/m 0 min 0 min 0 W/m 6,4 km/h (2 Bft) 42,37 %
16.11.2022 06:56 10,6 C 10,0 C 7,2 C 99 % 999,8 hPa 0,0 l/m 0 min 0 min 0 W/m 12,9 km/h (3 Bft) 31,91 %
16.11.2022 06:58 10,6 C 10,0 C 7,2 C 99 % 999,8 hPa 0,0 l/m 0 min 0 min 0 W/m 6,4 km/h (2 Bft) 14,29 %
16.11.2022 07:00 10,6 C 10,0 C 7,2 C 99 % 999,8 hPa 0,0 l/m 0 min 0 min 0 W/m 0,0 km/h (0 Bft) 39,77 %
16.11.2022 07:06 10,6 C 9,4 C 7,2 C 99 % 999,9 hPa 0,0 l/m 0 min 0 min 0 W/m 3,2 km/h (1 Bft) 80,00 %
16.11.2022 07:08 10,5 C 9,4 C 7,2 C 99 % 1000,0 hPa 0,0 l/m 0 min 0 min 0 W/m 9,7 km/h (2 Bft) 59,57 %
16.11.2022 07:10 10,5 C 9,4 C 7,2 C 99 % 999,9 hPa 0,0 l/m 0 min 0 min 0 W/m 12,9 km/h (3 Bft) 65,71 %
16.11.2022 07:12 10,5 C 9,4 C 7,2 C 99 % 999,9 hPa 0,0 l/m 0 min 0 min 0 W/m 9,7 km/h (2 Bft) 18,64 %
16.11.2022 07:14 10,4 C 9,4 C 7,2 C 99 % 999,9 hPa 0,0 l/m 0 min 0 min 0 W/m 9,7 km/h (2 Bft) 48,57 %
16.11.2022 07:16 10,4 C 9,4 C 7,2 C 99 % 999,9 hPa 0,0 l/m 0 min 0 min 0 W/m 12,9 km/h (3 Bft) 38,30 %
16.11.2022 07:18 10,4 C 9,4 C 7,2 C 99 % 999,9 hPa 0,0 l/m 0 min 0 min 0 W/m 9,7 km/h (2 Bft) 96,55 %
16.11.2022 07:20 10,3 C 9,4 C 7,2 C 99 % 1000,0 hPa 0,0 l/m 0 min 0 min 0 W/m 9,7 km/h (2 Bft) 97,14 %
16.11.2022 07:22 10,3 C 9,4 C 7,2 C 99 % 1000,0 hPa 0,0 l/m 0 min 0 min 0 W/m 22,5 km/h (4 Bft) 89,36 %
16.11.2022 07:24 10,3 C 9,4 C 7,2 C 99 % 1000,0 hPa 0,0 l/m 0 min 0 min 0 W/m 16,1 km/h (3 Bft) 84,75 %
16.11.2022 07:26 10,3 C 9,4 C 7,2 C 99 % 1000,0 hPa 0,0 l/m 0 min 0 min 0 W/m 12,9 km/h (3 Bft) 86,96 %
16.11.2022 07:28 10,3 C 9,4 C 7,2 C 99 % 1000,1 hPa 0,0 l/m 0 min 0 min 0 W/m 9,7 km/h (2 Bft) 97,22 %
16.11.2022 07:30 10,2 C 9,4 C 7,2 C 99 % 1000,1 hPa 0,0 l/m 0 min 0 min 0 W/m 9,7 km/h (2 Bft) 84,48 %
16.11.2022 07:32 10,2 C 9,4 C 6,7 C 99 % 1000,1 hPa 0,0 l/m 0 min 0 min 0 W/m 9,7 km/h (2 Bft) 93,62 %
16.11.2022 07:34 10,2 C 9,4 C 6,7 C 99 % 1000,2 hPa 0,0 l/m 0 min 0 min 0 W/m 12,9 km/h (3 Bft) 95,74 %
16.11.2022 07:36 10,2 C 9,4 C 6,7 C 99 % 1000,2 hPa 0,0 l/m 0 min 0 min 0 W/m 19,3 km/h (3 Bft) 91,43 %
16.11.2022 07:38 10,2 C 9,4 C 6,7 C 99 % 1000,2 hPa 0,0 l/m 0 min 0 min 0 W/m 6,4 km/h (2 Bft) 91,49 %
16.11.2022 07:40 10,2 C 9,4 C 6,7 C 99 % 1000,3 hPa 0,0 l/m 0 min 0 min 0 W/m 12,9 km/h (3 Bft) 67,24 %
16.11.2022 07:42 10,1 C 9,4 C 6,7 C 99 % 1000,3 hPa 0,0 l/m 0 min 0 min 0 W/m 12,9 km/h (3 Bft) 48,94 %
16.11.2022 07:44 10,1 C 9,4 C 6,7 C 99 % 1000,3 hPa 0,0 l/m 0 min 0 min 0 W/m 12,9 km/h (3 Bft) 37,14 %
16.11.2022 07:46 10,1 C 9,4 C 6,7 C 99 % 1000,4 hPa 0,0 l/m 0 min 0 min 0 W/m 12,9 km/h (3 Bft) 63,83 %
16.11.2022 07:48 10,1 C 9,4 C 6,7 C 99 % 1000,4 hPa 0,0 l/m 0 min 0 min 0 W/m 6,4 km/h (2 Bft) 40,43 %
16.11.2022 07:50 10,1 C 9,4 C 6,7 C 99 % 1000,4 hPa 0,0 l/m 0 min 0 min 0 W/m 12,9 km/h (3 Bft) 62,07 %
16.11.2022 07:52 10,1 C 9,4 C 6,7 C 99 % 1000,4 hPa 0,0 l/m 0 min 0 min 0 W/m 16,1 km/h (3 Bft) 53,19 %
16.11.2022 07:54 10,1 C 9,4 C 6,7 C 99 % 1000,5 hPa 0,0 l/m 0 min 0 min 0 W/m 6,4 km/h (2 Bft) 94,29 %
16.11.2022 07:56 10,1 C 9,4 C 6,7 C 99 % 1000,5 hPa 0,0 l/m 0 min 0 min 0 W/m 9,7 km/h (2 Bft) 93,62 %
16.11.2022 07:58 10,1 C 8,9 C 6,7 C 98 % 1000,5 hPa 0,0 l/m 0 min 0 min 0 W/m 6,4 km/h (2 Bft) 97,87 %
16.11.2022 08:00 10,1 C 8,9 C 6,7 C 98 % 1000,6 hPa 0,0 l/m 0 min 0 min 3 W/m 6,4 km/h (2 Bft) 87,23 %
16.11.2022 08:02 10,0 C 8,9 C 6,7 C 98 % 1000,6 hPa 0,0 l/m 0 min 0 min 5 W/m 12,9 km/h (3 Bft) 93,62 %
16.11.2022 08:04 9,9 C 8,9 C 6,7 C 98 % 1000,6 hPa 0,0 l/m 0 min 0 min 5 W/m 6,4 km/h (2 Bft) 97,83 %
16.11.2022 08:06 9,9 C 8,9 C 6,7 C 98 % 1000,7 hPa 0,0 l/m 0 min 0 min 7 W/m 6,4 km/h (2 Bft) 91,53 %
16.11.2022 08:08 9,9 C 8,9 C 6,7 C 99 % 1000,7 hPa 0,0 l/m 0 min 0 min 8 W/m 6,4 km/h (2 Bft) 94,29 %
16.11.2022 08:10 9,8 C 8,9 C 6,7 C 99 % 1000,7 hPa 0,0 l/m 0 min 0 min 9 W/m 6,4 km/h (2 Bft) 95,74 %
16.11.2022 08:12 9,8 C 8,9 C 6,7 C 99 % 1000,7 hPa 0,0 l/m 0 min 0 min 10 W/m 3,2 km/h (1 Bft) 93,62 %
16.11.2022 08:14 9,8 C 8,9 C 6,7 C 99 % 1000,7 hPa 0,0 l/m 0 min 0 min 11 W/m 6,4 km/h (2 Bft) 95,74 %
16.11.2022 08:16 9,7 C 8,9 C 6,7 C 98 % 1000,7 hPa 0,0 l/m 0 min 0 min 11 W/m 9,7 km/h (2 Bft) 95,65 %
16.11.2022 08:18 9,7 C 8,9 C 6,7 C 98 % 1000,7 hPa 0,0 l/m 0 min 0 min 12 W/m 3,2 km/h (1 Bft) 95,74 %
16.11.2022 08:20 9,7 C 8,9 C 6,7 C 98 % 1000,7 hPa 0,0 l/m 0 min 0 min 12 W/m 6,4 km/h (2 Bft) 93,62 %
16.11.2022 08:22 9,6 C 8,9 C 6,7 C 98 % 1000,8 hPa 0,0 l/m 0 min 0 min 12 W/m 12,9 km/h (3 Bft) 95,74 %
16.11.2022 08:24 9,6 C 8,9 C 6,1 C 98 % 1000,7 hPa 0,0 l/m 0 min 0 min 14 W/m 3,2 km/h (1 Bft) 97,87 %
16.11.2022 08:26 9,6 C 8,9 C 6,1 C 98 % 1000,7 hPa 0,0 l/m 0 min 0 min 14 W/m 3,2 km/h (1 Bft) 97,87 %
16.11.2022 08:28 9,6 C 8,9 C 6,1 C 98 % 1000,7 hPa 0,0 l/m 0 min 0 min 14 W/m 12,9 km/h (3 Bft) 95,65 %
16.11.2022 08:30 9,5 C 8,9 C 6,1 C 98 % 1000,7 hPa 0,0 l/m 0 min 0 min 15 W/m 0,0 km/h (0 Bft) 97,87 %
16.11.2022 08:32 9,5 C 8,3 C 6,1 C 98 % 1000,8 hPa 0,0 l/m 0 min 0 min 16 W/m 0,0 km/h (0 Bft) 97,87 %
16.11.2022 08:34 9,4 C 8,3 C 6,1 C 98 % 1000,8 hPa 0,0 l/m 0 min 0 min 17 W/m 6,4 km/h (2 Bft) 95,74 %
16.11.2022 08:36 9,4 C 8,3 C 6,1 C 98 % 1000,8 hPa 0,0 l/m 0 min 0 min 18 W/m 3,2 km/h (1 Bft) 97,87 %
16.11.2022 08:38 9,4 C 8,3 C 6,1 C 98 % 1000,8 hPa 0,0 l/m 0 min 0 min 18 W/m 3,2 km/h (1 Bft) 100,00 %
16.11.2022 08:40 9,4 C 8,3 C 6,1 C 98 % 1000,8 hPa 0,0 l/m 0 min 0 min 19 W/m 6,4 km/h (2 Bft) 100,00 %
16.11.2022 08:42 9,3 C 8,3 C 6,1 C 98 % 1000,9 hPa 0,0 l/m 0 min 0 min 19 W/m 6,4 km/h (2 Bft) 97,87 %
16.11.2022 08:44 9,3 C 8,3 C 6,1 C 98 % 1001,0 hPa 0,2 l/m 0 min 0 min 19 W/m 3,2 km/h (1 Bft) 100,00 %
16.11.2022 08:46 9,3 C 8,3 C 6,1 C 98 % 1001,1 hPa 0,0 l/m 0 min 0 min 21 W/m 6,4 km/h (2 Bft) 95,74 %
16.11.2022 08:48 9,3 C 8,3 C 6,1 C 98 % 1001,2 hPa 0,0 l/m 0 min 0 min 21 W/m 6,4 km/h (2 Bft) 100,00 %
16.11.2022 08:50 9,3 C 8,3 C 6,1 C 98 % 1001,2 hPa 0,0 l/m 0 min 0 min 21 W/m 3,2 km/h (1 Bft) 97,87 %
16.11.2022 08:52 9,3 C 8,3 C 6,1 C 98 % 1001,1 hPa 0,0 l/m 0 min 0 min 22 W/m 3,2 km/h (1 Bft) 100,00 %
16.11.2022 08:54 9,3 C 8,3 C 6,1 C 98 % 1001,2 hPa 0,0 l/m 0 min 0 min 23 W/m 3,2 km/h (1 Bft) 100,00 %
16.11.2022 08:56 9,3 C 8,3 C 6,1 C 98 % 1001,1 hPa 0,0 l/m 0 min 0 min 23 W/m 6,4 km/h (2 Bft) 100,00 %
16.11.2022 08:58 9,3 C 8,3 C 6,1 C 98 % 1001,1 hPa 0,0 l/m 0 min 0 min 21 W/m 3,2 km/h (1 Bft) 97,87 %
16.11.2022 09:00 9,3 C 8,3 C 6,1 C 98 % 1001,2 hPa 0,0 l/m 0 min 0 min 21 W/m 3,2 km/h (1 Bft) 100,00 %
16.11.2022 09:02 9,3 C 8,3 C 6,1 C 98 % 1001,2 hPa 0,0 l/m 0 min 0 min 25 W/m 3,2 km/h (1 Bft) 100,00 %
16.11.2022 09:04 9,3 C 8,3 C 6,1 C 98 % 1001,2 hPa 0,0 l/m 0 min 0 min 25 W/m 6,4 km/h (2 Bft) 100,00 %
16.11.2022 09:06 9,3 C 8,9 C 6,1 C 98 % 1001,3 hPa 0,0 l/m 0 min 0 min 26 W/m 3,2 km/h (1 Bft) 100,00 %
16.11.2022 09:08 9,3 C 8,9 C 6,1 C 98 % 1001,3 hPa 0,0 l/m 0 min 0 min 26 W/m 0,0 km/h (0 Bft) 100,00 %
16.11.2022 09:10 9,2 C 8,9 C 6,1 C 98 % 1001,2 hPa 0,0 l/m 0 min 0 min 27 W/m 3,2 km/h (1 Bft) 100,00 %
16.11.2022 09:12 9,3 C 8,9 C 6,1 C 98 % 1001,3 hPa 0,0 l/m 0 min 0 min 31 W/m 3,2 km/h (1 Bft) 100,00 %
16.11.2022 09:14 9,2 C 8,9 C 6,1 C 98 % 1001,3 hPa 0,0 l/m 0 min 0 min 31 W/m 6,4 km/h (2 Bft) 100,00 %
16.11.2022 09:16 9,2 C 8,9 C 6,1 C 98 % 1001,3 hPa 0,0 l/m 0 min 0 min 40 W/m 6,4 km/h (2 Bft) 100,00 %
16.11.2022 09:18 9,3 C 8,9 C 6,1 C 98 % 1001,3 hPa 0,0 l/m 0 min 0 min 31 W/m 3,2 km/h (1 Bft) 100,00 %
16.11.2022 09:20 9,3 C 8,9 C 6,1 C 98 % 1001,3 hPa 0,0 l/m 0 min 0 min 32 W/m 6,4 km/h (2 Bft) 97,87 %
16.11.2022 09:22 9,3 C 8,9 C 6,1 C 98 % 1001,4 hPa 0,0 l/m 0 min 0 min 57 W/m 6,4 km/h (2 Bft) 100,00 %
16.11.2022 09:24 9,3 C 8,9 C 6,1 C 98 % 1001,4 hPa 0,0 l/m 0 min 0 min 53 W/m 0,0 km/h (0 Bft) 100,00 %
16.11.2022 09:26 9,3 C 8,9 C 6,1 C 98 % 1001,4 hPa 0,0 l/m 0 min 0 min 34 W/m 0,0 km/h (0 Bft) 100,00 %
16.11.2022 09:28 9,3 C 8,9 C 6,1 C 98 % 1001,4 hPa 0,0 l/m 0 min 0 min 34 W/m 12,9 km/h (3 Bft) 95,65 %
16.11.2022 09:30 9,3 C 8,9 C 6,1 C 98 % 1001,5 hPa 0,0 l/m 0 min 0 min 34 W/m 9,7 km/h (2 Bft) 100,00 %
16.11.2022 09:32 9,3 C 8,9 C 6,1 C 98 % 1001,4 hPa 0,0 l/m 0 min 0 min 39 W/m 6,4 km/h (2 Bft) 100,00 %
16.11.2022 09:34 9,3 C 8,9 C 6,1 C 98 % 1001,5 hPa 0,0 l/m 0 min 0 min 82 W/m 6,4 km/h (2 Bft) 100,00 %
16.11.2022 09:36 9,3 C 8,9 C 6,1 C 98 % 1001,5 hPa 0,0 l/m 0 min 0 min 67 W/m 9,7 km/h (2 Bft) 100,00 %
16.11.2022 09:38 9,4 C 8,9 C 6,1 C 98 % 1001,5 hPa 0,0 l/m 2 min 0 min 127 W/m 6,4 km/h (2 Bft) 100,00 %
16.11.2022 09:40 9,4 C 8,9 C 6,1 C 98 % 1001,5 hPa 0,0 l/m 2 min 0 min 130 W/m 9,7 km/h (2 Bft) 100,00 %
16.11.2022 09:42 9,4 C 8,9 C 6,1 C 98 % 1001,5 hPa 0,0 l/m 2 min 0 min 154 W/m 6,4 km/h (2 Bft) 100,00 %
16.11.2022 09:44 9,4 C 9,4 C 6,1 C 98 % 1001,6 hPa 0,0 l/m 0 min 0 min 89 W/m 6,4 km/h (2 Bft) 100,00 %
16.11.2022 09:46 9,4 C 9,4 C 6,1 C 98 % 1001,5 hPa 0,0 l/m 0 min 0 min 52 W/m 6,4 km/h (2 Bft) 100,00 %
16.11.2022 09:48 9,4 C 9,4 C 6,1 C 98 % 1001,6 hPa 0,0 l/m 0 min 0 min 47 W/m 12,9 km/h (3 Bft) 97,87 %
16.11.2022 09:50 9,4 C 9,4 C 6,1 C 98 % 1001,6 hPa 0,0 l/m 0 min 0 min 46 W/m 0,0 km/h (0 Bft) 97,83 %
16.11.2022 09:52 9,4 C 9,4 C 6,1 C 98 % 1001,6 hPa 0,0 l/m 2 min 0 min 120 W/m 9,7 km/h (2 Bft) 97,87 %
16.11.2022 09:54 9,4 C 9,4 C 6,1 C 98 % 1001,6 hPa 0,0 l/m 2 min 0 min 165 W/m 6,4 km/h (2 Bft) 100,00 %
16.11.2022 09:56 9,5 C 9,4 C 6,1 C 98 % 1001,6 hPa 0,0 l/m 0 min 0 min 91 W/m 6,4 km/h (2 Bft) 97,87 %
16.11.2022 09:58 9,5 C 9,4 C 6,1 C 98 % 1001,6 hPa 0,0 l/m 0 min 0 min 81 W/m 6,4 km/h (2 Bft) 95,74 %
16.11.2022 10:00 9,6 C 9,4 C 6,1 C 98 % 1001,6 hPa 0,0 l/m 0 min 0 min 63 W/m 12,9 km/h (3 Bft) 91,49 %
16.11.2022 10:02 9,6 C 9,4 C 6,7 C 98 % 1001,7 hPa 0,0 l/m 0 min 0 min 73 W/m 6,4 km/h (2 Bft) 95,74 %
16.11.2022 10:04 9,6 C 9,4 C 6,7 C 98 % 1001,7 hPa 0,0 l/m 0 min 0 min 79 W/m 6,4 km/h (2 Bft) 93,48 %
16.11.2022 10:06 9,6 C 9,4 C 6,7 C 98 % 1001,8 hPa 0,0 l/m 0 min 0 min 84 W/m 6,4 km/h (2 Bft) 95,74 %
16.11.2022 10:08 9,6 C 9,4 C 6,7 C 98 % 1001,8 hPa 0,0 l/m 0 min 0 min 86 W/m 12,9 km/h (3 Bft) 93,62 %
16.11.2022 10:10 9,6 C 9,4 C 6,7 C 98 % 1001,8 hPa 0,0 l/m 0 min 0 min 86 W/m 12,9 km/h (3 Bft) 91,49 %
16.11.2022 10:12 9,6 C 9,4 C 6,7 C 98 % 1001,9 hPa 0,0 l/m 0 min 0 min 84 W/m 12,9 km/h (3 Bft) 95,74 %
16.11.2022 10:14 9,6 C 9,4 C 6,7 C 98 % 1001,9 hPa 0,0 l/m 0 min 0 min 81 W/m 6,4 km/h (2 Bft) 95,65 %
16.11.2022 10:16 9,6 C 9,4 C 6,7 C 98 % 1001,8 hPa 0,0 l/m 0 min 0 min 73 W/m 6,4 km/h (2 Bft) 94,44 %
16.11.2022 10:18 9,6 C 9,4 C 6,7 C 97 % 1001,9 hPa 0,0 l/m 0 min 0 min 68 W/m 6,4 km/h (2 Bft) 91,49 %
16.11.2022 10:20 9,7 C 9,4 C 6,7 C 97 % 1001,9 hPa 0,0 l/m 0 min 0 min 71 W/m 12,9 km/h (3 Bft) 93,62 %
16.11.2022 10:22 9,7 C 9,4 C 6,7 C 97 % 1001,9 hPa 0,0 l/m 0 min 0 min 72 W/m 3,2 km/h (1 Bft) 93,62 %
16.11.2022 10:24 9,7 C 9,4 C 6,7 C 97 % 1001,9 hPa 0,0 l/m 0 min 0 min 70 W/m 6,4 km/h (2 Bft) 93,48 %
16.11.2022 10:26 9,7 C 9,4 C 6,7 C 97 % 1001,9 hPa 0,0 l/m 0 min 0 min 69 W/m 6,4 km/h (2 Bft) 89,36 %
16.11.2022 10:28 9,7 C 9,4 C 6,7 C 97 % 1001,9 hPa 0,0 l/m 0 min 0 min 74 W/m 6,4 km/h (2 Bft) 91,49 %
16.11.2022 10:30 9,7 C 9,4 C 6,7 C 97 % 1001,9 hPa 0,0 l/m 0 min 0 min 86 W/m 6,4 km/h (2 Bft) 93,62 %
16.11.2022 10:32 9,8 C 9,4 C 6,7 C 97 % 1001,9 hPa 0,0 l/m 0 min 0 min 93 W/m 6,4 km/h (2 Bft) 93,62 %
16.11.2022 10:34 9,8 C 10,0 C 6,7 C 97 % 1001,9 hPa 0,0 l/m 0 min 0 min 95 W/m 16,1 km/h (3 Bft) 93,62 %
16.11.2022 10:36 9,8 C 10,0 C 6,7 C 97 % 1001,9 hPa 0,0 l/m 0 min 0 min 96 W/m 6,4 km/h (2 Bft) 93,48 %
16.11.2022 10:38 9,8 C 10,0 C 6,7 C 97 % 1002,0 hPa 0,0 l/m 0 min 0 min 101 W/m 6,4 km/h (2 Bft) 93,62 %
16.11.2022 10:40 9,8 C 10,0 C 6,7 C 97 % 1001,9 hPa 0,0 l/m 0 min 0 min 106 W/m 6,4 km/h (2 Bft) 97,87 %
16.11.2022 10:42 9,9 C 10,0 C 6,7 C 97 % 1002,0 hPa 0,0 l/m 0 min 0 min 105 W/m 16,1 km/h (3 Bft) 95,74 %
16.11.2022 10:44 9,9 C 10,0 C 6,7 C 96 % 1001,9 hPa 0,0 l/m 0 min 0 min 107 W/m 12,9 km/h (3 Bft) 97,87 %
16.11.2022 10:46 9,9 C 10,0 C 6,7 C 96 % 1002,0 hPa 0,0 l/m 0 min 0 min 113 W/m 12,9 km/h (3 Bft) 97,87 %
16.11.2022 10:48 10,0 C 10,0 C 6,7 C 96 % 1002,0 hPa 0,0 l/m 0 min 0 min 119 W/m 6,4 km/h (2 Bft) 97,83 %
16.11.2022 10:50 10,1 C 10,6 C 6,7 C 96 % 1002,0 hPa 0,0 l/m 0 min 0 min 129 W/m 6,4 km/h (2 Bft) 95,74 %
16.11.2022 10:52 10,1 C 10,6 C 6,7 C 96 % 1001,9 hPa 0,0 l/m 0 min 0 min 141 W/m 25,7 km/h (4 Bft) 93,62 %
16.11.2022 10:54 10,1 C 10,6 C 6,7 C 96 % 1002,0 hPa 0,0 l/m 0 min 0 min 136 W/m 16,1 km/h (3 Bft) 97,87 %
16.11.2022 10:56 10,2 C 10,6 C 6,7 C 95 % 1002,0 hPa 0,0 l/m 0 min 0 min 136 W/m 6,4 km/h (2 Bft) 100,00 %
16.11.2022 10:58 10,3 C 10,6 C 7,2 C 95 % 1002,0 hPa 0,0 l/m 0 min 0 min 136 W/m 12,9 km/h (3 Bft) 100,00 %
16.11.2022 11:00 10,3 C 10,6 C 7,2 C 95 % 1002,0 hPa 0,0 l/m 0 min 0 min 123 W/m 9,7 km/h (2 Bft) 100,00 %
16.11.2022 11:02 10,4 C 11,1 C 7,2 C 95 % 1001,9 hPa 0,0 l/m 0 min 0 min 118 W/m 9,7 km/h (2 Bft) 100,00 %
16.11.2022 11:04 10,4 C 10,6 C 7,2 C 95 % 1001,9 hPa 0,0 l/m 0 min 0 min 93 W/m 19,3 km/h (3 Bft) 100,00 %
16.11.2022 11:06 10,5 C 10,6 C 7,2 C 94 % 1001,9 hPa 0,0 l/m 0 min 0 min 61 W/m 19,3 km/h (3 Bft) 100,00 %
16.11.2022 11:08 10,6 C 10,6 C 7,2 C 94 % 1001,9 hPa 0,0 l/m 0 min 0 min 57 W/m 16,1 km/h (3 Bft) 100,00 %
16.11.2022 11:10 10,6 C 10,6 C 7,2 C 93 % 1001,9 hPa 0,0 l/m 0 min 0 min 79 W/m 19,3 km/h (3 Bft) 100,00 %
16.11.2022 11:12 10,6 C 10,6 C 7,2 C 93 % 1001,9 hPa 0,0 l/m 0 min 0 min 103 W/m 6,4 km/h (2 Bft) 100,00 %
16.11.2022 11:14 10,6 C 10,6 C 7,2 C 92 % 1002,0 hPa 0,0 l/m 0 min 0 min 124 W/m 6,4 km/h (2 Bft) 100,00 %
16.11.2022 11:16 10,7 C 11,1 C 7,2 C 92 % 1002,0 hPa 0,0 l/m 0 min 0 min 133 W/m 16,1 km/h (3 Bft) 100,00 %
16.11.2022 11:18 10,8 C 11,1 C 7,8 C 92 % 1002,0 hPa 0,0 l/m 0 min 0 min 91 W/m 16,1 km/h (3 Bft) 100,00 %
16.11.2022 11:20 10,9 C 11,1 C 7,8 C 91 % 1002,0 hPa 0,0 l/m 0 min 0 min 54 W/m 9,7 km/h (2 Bft) 100,00 %
16.11.2022 11:22 10,9 C 11,1 C 7,8 C 91 % 1001,9 hPa 0,0 l/m 0 min 0 min 42 W/m 19,3 km/h (3 Bft) 97,87 %
16.11.2022 11:24 11,1 C 10,6 C 7,8 C 90 % 1001,9 hPa 0,0 l/m 0 min 0 min 39 W/m 12,9 km/h (3 Bft) 100,00 %
16.11.2022 11:26 11,1 C 11,1 C 7,8 C 90 % 1001,9 hPa 0,0 l/m 0 min 0 min 38 W/m 19,3 km/h (3 Bft) 100,00 %
16.11.2022 11:28 11,2 C 11,1 C 7,8 C 90 % 1001,9 hPa 0,0 l/m 0 min 0 min 50 W/m 22,5 km/h (4 Bft) 100,00 %
16.11.2022 11:30 11,2 C 11,1 C 7,8 C 89 % 1001,9 hPa 0,0 l/m 0 min 0 min 39 W/m 12,9 km/h (3 Bft) 97,87 %
16.11.2022 11:32 11,3 C 11,1 C 7,8 C 89 % 1001,9 hPa 0,0 l/m 0 min 0 min 38 W/m 16,1 km/h (3 Bft) 100,00 %
16.11.2022 11:34 11,3 C 11,1 C 7,8 C 88 % 1001,9 hPa 0,0 l/m 0 min 0 min 34 W/m 22,5 km/h (4 Bft) 100,00 %
16.11.2022 11:36 11,3 C 11,1 C 7,8 C 87 % 1001,8 hPa 0,0 l/m 0 min 0 min 33 W/m 25,7 km/h (4 Bft) 100,00 %
16.11.2022 11:38 11,4 C 10,6 C 7,8 C 87 % 1001,9 hPa 0,0 l/m 0 min 0 min 35 W/m 16,1 km/h (3 Bft) 100,00 %
16.11.2022 11:40 11,4 C 11,1 C 7,8 C 86 % 1001,8 hPa 0,0 l/m 0 min 0 min 38 W/m 25,7 km/h (4 Bft) 100,00 %
16.11.2022 11:42 11,4 C 11,1 C 7,8 C 86 % 1001,8 hPa 0,0 l/m 0 min 0 min 38 W/m 25,7 km/h (4 Bft) 97,87 %
16.11.2022 11:44 11,4 C 11,1 C 7,8 C 86 % 1001,7 hPa 0,0 l/m 0 min 0 min 40 W/m 16,1 km/h (3 Bft) 100,00 %
16.11.2022 11:46 11,5 C 11,1 C 7,8 C 86 % 1001,7 hPa 0,0 l/m 0 min 0 min 38 W/m 16,1 km/h (3 Bft) 100,00 %
16.11.2022 11:48 11,6 C 11,1 C 7,8 C 86 % 1001,7 hPa 0,0 l/m 0 min 0 min 39 W/m 19,3 km/h (3 Bft) 100,00 %
16.11.2022 11:50 11,6 C 11,1 C 7,8 C 86 % 1001,7 hPa 0,0 l/m 0 min 0 min 39 W/m 25,7 km/h (4 Bft) 100,00 %
16.11.2022 11:52 11,6 C 11,1 C 7,8 C 86 % 1001,7 hPa 0,0 l/m 0 min 0 min 39 W/m 12,9 km/h (3 Bft) 100,00 %
16.11.2022 11:54 11,7 C 11,7 C 7,8 C 85 % 1001,7 hPa 0,0 l/m 0 min 0 min 40 W/m 19,3 km/h (3 Bft) 97,92 %
16.11.2022 11:56 11,7 C 11,7 C 7,8 C 85 % 1001,7 hPa 0,0 l/m 0 min 0 min 42 W/m 29,0 km/h (5 Bft) 97,87 %
16.11.2022 11:58 11,7 C 11,7 C 7,8 C 84 % 1001,7 hPa 0,0 l/m 0 min 0 min 46 W/m 19,3 km/h (3 Bft) 97,83 %
16.11.2022 12:00 11,8 C 11,7 C 7,8 C 84 % 1001,6 hPa 0,0 l/m 0 min 0 min 46 W/m 16,1 km/h (3 Bft) 97,87 %
16.11.2022 12:02 11,8 C 11,7 C 7,8 C 84 % 1001,7 hPa 0,0 l/m 0 min 0 min 52 W/m 16,1 km/h (3 Bft) 97,87 %
16.11.2022 12:04 11,8 C 11,7 C 8,3 C 85 % 1001,6 hPa 0,0 l/m 0 min 0 min 56 W/m 16,1 km/h (3 Bft) 97,87 %
16.11.2022 12:08 11,9 C 11,7 C 8,3 C 85 % 1001,6 hPa 0,0 l/m 0 min 0 min 72 W/m 16,1 km/h (3 Bft) 96,84 %
16.11.2022 12:10 11,9 C 11,7 C 8,3 C 84 % 1001,6 hPa 0,0 l/m 0 min 0 min 80 W/m 6,4 km/h (2 Bft) 97,83 %
16.11.2022 12:12 12,0 C 11,7 C 8,3 C 84 % 1001,6 hPa 0,0 l/m 0 min 0 min 67 W/m 16,1 km/h (3 Bft) 97,87 %
16.11.2022 12:14 12,1 C 11,7 C 8,3 C 84 % 1001,6 hPa 0,0 l/m 0 min 0 min 57 W/m 16,1 km/h (3 Bft) 97,87 %
16.11.2022 12:16 12,1 C 11,7 C 8,3 C 83 % 1001,5 hPa 0,0 l/m 0 min 0 min 52 W/m 12,9 km/h (3 Bft) 97,87 %
16.11.2022 12:18 12,1 C 11,7 C 8,3 C 83 % 1001,5 hPa 0,0 l/m 0 min 0 min 46 W/m 19,3 km/h (3 Bft) 97,87 %
16.11.2022 12:20 12,1 C 11,7 C 8,3 C 83 % 1001,5 hPa 0,0 l/m 0 min 0 min 44 W/m 16,1 km/h (3 Bft) 97,87 %
16.11.2022 12:22 12,1 C 11,7 C 8,3 C 83 % 1001,5 hPa 0,0 l/m 0 min 0 min 44 W/m 19,3 km/h (3 Bft) 95,65 %
16.11.2022 12:24 12,1 C 11,7 C 8,3 C 82 % 1001,5 hPa 0,0 l/m 0 min 0 min 42 W/m 16,1 km/h (3 Bft) 97,87 %
16.11.2022 12:26 12,2 C 11,7 C 8,3 C 82 % 1001,5 hPa 0,0 l/m 0 min 0 min 43 W/m 6,4 km/h (2 Bft) 97,87 %
16.11.2022 12:28 12,2 C 11,7 C 8,3 C 82 % 1001,4 hPa 0,0 l/m 0 min 0 min 44 W/m 12,9 km/h (3 Bft) 97,87 %
16.11.2022 12:30 12,2 C 11,7 C 8,3 C 82 % 1001,4 hPa 0,0 l/m 0 min 0 min 42 W/m 19,3 km/h (3 Bft) 97,87 %
16.11.2022 12:32 12,2 C 12,2 C 8,3 C 83 % 1001,4 hPa 0,0 l/m 0 min 0 min 42 W/m 12,9 km/h (3 Bft) 93,62 %
16.11.2022 12:34 12,3 C 12,2 C 8,3 C 83 % 1001,4 hPa 0,0 l/m 0 min 0 min 42 W/m 12,9 km/h (3 Bft) 95,65 %
16.11.2022 12:36 12,3 C 12,2 C 8,3 C 82 % 1001,3 hPa 0,0 l/m 0 min 0 min 42 W/m 12,9 km/h (3 Bft) 100,00 %
16.11.2022 12:38 12,3 C 12,2 C 8,3 C 83 % 1001,3 hPa 0,0 l/m 0 min 0 min 42 W/m 16,1 km/h (3 Bft) 100,00 %
16.11.2022 12:40 12,4 C 12,2 C 8,3 C 82 % 1001,3 hPa 0,0 l/m 0 min 0 min 44 W/m 12,9 km/h (3 Bft) 97,87 %
16.11.2022 12:42 12,4 C 12,2 C 8,3 C 82 % 1001,2 hPa 0,0 l/m 0 min 0 min 42 W/m 19,3 km/h (3 Bft) 93,62 %
16.11.2022 12:44 12,4 C 12,2 C 8,3 C 82 % 1001,1 hPa 0,0 l/m 0 min 0 min 44 W/m 16,1 km/h (3 Bft) 95,74 %
16.11.2022 12:46 12,4 C 12,8 C 8,3 C 82 % 1001,1 hPa 0,0 l/m 0 min 0 min 71 W/m 12,9 km/h (3 Bft) 95,65 %
16.11.2022 12:48 12,5 C 12,8 C 8,9 C 82 % 1001,0 hPa 0,0 l/m 0 min 0 min 91 W/m 22,5 km/h (4 Bft) 93,62 %
16.11.2022 12:50 12,5 C 12,8 C 8,9 C 82 % 1001,0 hPa 0,0 l/m 0 min 0 min 60 W/m 16,1 km/h (3 Bft) 97,87 %
16.11.2022 12:52 12,6 C 12,8 C 8,9 C 82 % 1001,0 hPa 0,0 l/m 0 min 0 min 71 W/m 12,9 km/h (3 Bft) 91,49 %
16.11.2022 12:54 12,6 C 13,3 C 8,9 C 82 % 1001,0 hPa 0,0 l/m 0 min 0 min 85 W/m 16,1 km/h (3 Bft) 95,74 %
16.11.2022 12:56 12,6 C 13,9 C 8,9 C 81 % 1001,0 hPa 0,0 l/m 0 min 0 min 115 W/m 12,9 km/h (3 Bft) 95,74 %
16.11.2022 12:58 12,7 C 14,4 C 8,9 C 81 % 1001,0 hPa 0,0 l/m 2 min 0 min 179 W/m 16,1 km/h (3 Bft) 95,65 %
16.11.2022 13:00 12,7 C 15,0 C 8,9 C 81 % 1001,0 hPa 0,0 l/m 2 min 0 min 301 W/m 16,1 km/h (3 Bft) 93,62 %
16.11.2022 13:02 12,8 C 15,0 C 8,9 C 81 % 1001,0 hPa 0,0 l/m 2 min 0 min 311 W/m 19,3 km/h (3 Bft) 93,62 %
16.11.2022 13:04 12,8 C 15,6 C 8,9 C 80 % 1001,0 hPa 0,0 l/m 2 min 0 min 254 W/m 19,3 km/h (3 Bft) 91,49 %
16.11.2022 13:06 12,9 C 15,6 C 8,9 C 80 % 1001,0 hPa 0,0 l/m 2 min 0 min 267 W/m 22,5 km/h (4 Bft) 78,72 %
16.11.2022 13:08 12,9 C 15,6 C 8,9 C 80 % 1001,0 hPa 0,0 l/m 2 min 0 min 319 W/m 16,1 km/h (3 Bft) 87,23 %
16.11.2022 13:10 13,0 C 15,0 C 8,9 C 80 % 1000,9 hPa 0,0 l/m 2 min 0 min 334 W/m 6,4 km/h (2 Bft) 91,30 %
16.11.2022 13:12 13,1 C 14,4 C 8,9 C 80 % 1000,9 hPa 0,0 l/m 2 min 0 min 337 W/m 16,1 km/h (3 Bft) 97,87 %
16.11.2022 13:14 13,1 C 15,0 C 8,9 C 79 % 1000,9 hPa 0,0 l/m 2 min 0 min 336 W/m 22,5 km/h (4 Bft) 97,87 %
16.11.2022 13:16 13,1 C 14,4 C 8,9 C 79 % 1000,9 hPa 0,0 l/m 2 min 0 min 336 W/m 12,9 km/h (3 Bft) 97,87 %
16.11.2022 13:18 13,2 C 14,4 C 8,9 C 79 % 1000,8 hPa 0,0 l/m 2 min 0 min 337 W/m 16,1 km/h (3 Bft) 91,49 %
16.11.2022 13:20 13,2 C 13,9 C 8,9 C 79 % 1000,8 hPa 0,0 l/m 2 min 0 min 336 W/m 12,9 km/h (3 Bft) 82,98 %
16.11.2022 13:22 13,3 C 13,9 C 8,9 C 78 % 1000,8 hPa 0,0 l/m 2 min 0 min 335 W/m 9,7 km/h (2 Bft) 78,26 %
16.11.2022 13:24 13,3 C 14,4 C 8,9 C 78 % 1000,8 hPa 0,0 l/m 2 min 0 min 333 W/m 9,7 km/h (2 Bft) 95,74 %
16.11.2022 13:26 13,4 C 14,4 C 8,9 C 79 % 1000,8 hPa 0,0 l/m 2 min 0 min 332 W/m 12,9 km/h (3 Bft) 95,74 %
16.11.2022 13:28 13,4 C 14,4 C 8,9 C 79 % 1000,8 hPa 0,0 l/m 2 min 0 min 333 W/m 12,9 km/h (3 Bft) 100,00 %
16.11.2022 13:30 13,4 C 13,9 C 8,9 C 78 % 1000,8 hPa 0,0 l/m 2 min 0 min 336 W/m 19,3 km/h (3 Bft) 100,00 %
16.11.2022 13:32 13,4 C 13,3 C 8,9 C 78 % 1000,7 hPa 0,0 l/m 2 min 0 min 226 W/m 19,3 km/h (3 Bft) 100,00 %
16.11.2022 13:34 13,4 C 12,8 C 8,9 C 78 % 1000,7 hPa 0,0 l/m 0 min 0 min 52 W/m 6,4 km/h (2 Bft) 95,65 %
16.11.2022 13:36 13,4 C 12,8 C 8,9 C 78 % 1000,7 hPa 0,0 l/m 0 min 0 min 71 W/m 12,9 km/h (3 Bft) 100,00 %
16.11.2022 13:38 13,3 C 12,8 C 8,9 C 78 % 1000,7 hPa 0,0 l/m 0 min 0 min 94 W/m 6,4 km/h (2 Bft) 100,00 %
16.11.2022 13:40 13,3 C 12,8 C 8,3 C 78 % 1000,7 hPa 0,0 l/m 0 min 0 min 88 W/m 12,9 km/h (3 Bft) 100,00 %
16.11.2022 13:42 13,2 C 12,2 C 8,3 C 78 % 1000,7 hPa 0,0 l/m 0 min 0 min 80 W/m 12,9 km/h (3 Bft) 100,00 %
16.11.2022 13:44 13,1 C 12,2 C 8,3 C 78 % 1000,7 hPa 0,0 l/m 0 min 0 min 92 W/m 12,9 km/h (3 Bft) 100,00 %
16.11.2022 13:46 13,1 C 12,2 C 8,3 C 79 % 1000,6 hPa 0,0 l/m 0 min 0 min 93 W/m 9,7 km/h (2 Bft) 97,83 %
16.11.2022 13:48 13,1 C 12,2 C 8,9 C 79 % 1000,6 hPa 0,0 l/m 0 min 0 min 98 W/m 16,1 km/h (3 Bft) 100,00 %
16.11.2022 13:50 13,0 C 12,2 C 8,9 C 79 % 1000,6 hPa 0,0 l/m 0 min 0 min 110 W/m 12,9 km/h (3 Bft) 100,00 %
16.11.2022 13:52 13,0 C 12,8 C 8,9 C 79 % 1000,6 hPa 0,0 l/m 0 min 0 min 127 W/m 16,1 km/h (3 Bft) 100,00 %
16.11.2022 13:54 12,9 C 12,8 C 8,9 C 79 % 1000,6 hPa 0,0 l/m 0 min 0 min 118 W/m 12,9 km/h (3 Bft) 100,00 %
16.11.2022 13:56 12,9 C 12,8 C 8,9 C 79 % 1000,6 hPa 0,0 l/m 0 min 0 min 100 W/m 6,4 km/h (2 Bft) 100,00 %
16.11.2022 13:58 12,9 C 12,8 C 8,9 C 79 % 1000,5 hPa 0,0 l/m 0 min 0 min 93 W/m 12,9 km/h (3 Bft) 100,00 %
16.11.2022 14:00 12,9 C 12,8 C 8,9 C 79 % 1000,5 hPa 0,0 l/m 0 min 0 min 123 W/m 19,3 km/h (3 Bft) 100,00 %
16.11.2022 14:02 12,9 C 13,3 C 8,9 C 79 % 1000,5 hPa 0,0 l/m 2 min 0 min 277 W/m 12,9 km/h (3 Bft) 100,00 %
16.11.2022 14:04 13,0 C 14,4 C 8,9 C 79 % 1000,5 hPa 0,0 l/m 2 min 0 min 394 W/m 12,9 km/h (3 Bft) 100,00 %
16.11.2022 14:06 13,1 C 15,0 C 8,9 C 79 % 1000,4 hPa 0,0 l/m 2 min 0 min 330 W/m 19,3 km/h (3 Bft) 100,00 %
16.11.2022 14:08 13,1 C 15,0 C 8,9 C 79 % 1000,4 hPa 0,0 l/m 2 min 0 min 293 W/m 12,9 km/h (3 Bft) 95,74 %
16.11.2022 14:10 13,2 C 15,0 C 8,9 C 79 % 1000,4 hPa 0,0 l/m 2 min 0 min 275 W/m 19,3 km/h (3 Bft) 100,00 %
16.11.2022 14:12 13,2 C 14,4 C 8,9 C 79 % 1000,4 hPa 0,0 l/m 2 min 0 min 252 W/m 16,1 km/h (3 Bft) 97,87 %
16.11.2022 14:16 13,2 C 14,4 C 8,9 C 78 % 1000,3 hPa 0,0 l/m 4 min 0 min 144 W/m 9,7 km/h (2 Bft) 97,50 %
16.11.2022 14:18 13,3 C 14,4 C 8,9 C 78 % 1000,3 hPa 0,0 l/m 2 min 0 min 235 W/m 12,9 km/h (3 Bft) 95,74 %
16.11.2022 14:20 13,3 C 13,9 C 8,9 C 79 % 1000,2 hPa 0,0 l/m 2 min 0 min 257 W/m 16,1 km/h (3 Bft) 95,65 %
16.11.2022 14:22 13,3 C 13,9 C 8,9 C 78 % 1000,3 hPa 0,0 l/m 2 min 0 min 250 W/m 12,9 km/h (3 Bft) 97,87 %
16.11.2022 14:24 13,3 C 14,4 C 8,9 C 78 % 1000,2 hPa 0,0 l/m 2 min 0 min 216 W/m 16,1 km/h (3 Bft) 97,87 %
16.11.2022 14:26 13,3 C 14,4 C 8,9 C 78 % 1000,2 hPa 0,0 l/m 2 min 0 min 240 W/m 12,9 km/h (3 Bft) 95,74 %
16.11.2022 14:28 13,4 C 13,9 C 8,9 C 78 % 1000,2 hPa 0,0 l/m 2 min 0 min 234 W/m 12,9 km/h (3 Bft) 97,87 %
16.11.2022 14:30 13,4 C 13,9 C 8,9 C 78 % 1000,2 hPa 0,0 l/m 2 min 0 min 183 W/m 12,9 km/h (3 Bft) 97,87 %
16.11.2022 14:32 13,4 C 13,9 C 8,9 C 78 % 1000,2 hPa 0,0 l/m 2 min 0 min 210 W/m 12,9 km/h (3 Bft) 93,48 %
16.11.2022 14:34 13,4 C 15,0 C 8,9 C 78 % 1000,2 hPa 0,0 l/m 2 min 0 min 225 W/m 6,4 km/h (2 Bft) 95,74 %
16.11.2022 14:36 13,4 C 15,0 C 8,9 C 78 % 1000,1 hPa 0,0 l/m 2 min 0 min 188 W/m 16,1 km/h (3 Bft) 97,87 %
16.11.2022 14:38 13,4 C 14,4 C 8,9 C 78 % 1000,1 hPa 0,0 l/m 2 min 0 min 152 W/m 16,1 km/h (3 Bft) 89,36 %
16.11.2022 14:40 13,4 C 15,0 C 8,9 C 78 % 1000,1 hPa 0,0 l/m 2 min 0 min 197 W/m 12,9 km/h (3 Bft) 95,74 %
16.11.2022 14:42 13,4 C 13,9 C 8,9 C 78 % 1000,1 hPa 0,0 l/m 2 min 0 min 166 W/m 16,1 km/h (3 Bft) 97,87 %
16.11.2022 14:44 13,4 C 13,9 C 8,9 C 78 % 1000,1 hPa 0,0 l/m 0 min 0 min 112 W/m 12,9 km/h (3 Bft) 97,83 %
16.11.2022 14:46 13,4 C 13,3 C 8,9 C 79 % 1000,1 hPa 0,0 l/m 0 min 0 min 71 W/m 12,9 km/h (3 Bft) 93,62 %
16.11.2022 14:48 13,4 C 12,8 C 8,9 C 79 % 1000,0 hPa 0,0 l/m 0 min 0 min 76 W/m 6,4 km/h (2 Bft) 93,62 %
16.11.2022 14:50 13,4 C 12,8 C 8,9 C 79 % 1000,0 hPa 0,0 l/m 0 min 0 min 88 W/m 6,4 km/h (2 Bft) 95,74 %
16.11.2022 14:52 13,3 C 13,3 C 8,9 C 79 % 1000,0 hPa 0,0 l/m 2 min 0 min 131 W/m 6,4 km/h (2 Bft) 97,87 %
16.11.2022 14:54 13,3 C 13,3 C 8,9 C 79 % 999,9 hPa 0,0 l/m 2 min 0 min 179 W/m 12,9 km/h (3 Bft) 91,49 %
16.11.2022 14:56 13,3 C 13,3 C 8,9 C 79 % 999,9 hPa 0,0 l/m 2 min 0 min 180 W/m 16,1 km/h (3 Bft) 89,13 %
16.11.2022 14:58 13,3 C 12,8 C 8,9 C 79 % 999,9 hPa 0,0 l/m 2 min 0 min 168 W/m 12,9 km/h (3 Bft) 93,62 %
16.11.2022 15:00 13,2 C 12,8 C 8,9 C 79 % 999,8 hPa 0,0 l/m 2 min 0 min 125 W/m 12,9 km/h (3 Bft) 80,85 %
16.11.2022 15:02 13,2 C 12,8 C 8,9 C 79 % 999,9 hPa 0,0 l/m 2 min 0 min 154 W/m 6,4 km/h (2 Bft) 89,36 %
16.11.2022 15:04 13,2 C 12,2 C 8,9 C 79 % 999,8 hPa 0,0 l/m 2 min 0 min 165 W/m 6,4 km/h (2 Bft) 85,11 %
16.11.2022 15:06 13,2 C 12,2 C 8,9 C 79 % 999,8 hPa 0,0 l/m 2 min 0 min 152 W/m 12,9 km/h (3 Bft) 85,11 %
16.11.2022 15:08 13,2 C 12,2 C 8,9 C 79 % 999,8 hPa 0,0 l/m 2 min 0 min 110 W/m 16,1 km/h (3 Bft) 93,48 %
16.11.2022 15:10 13,2 C 12,2 C 8,9 C 79 % 999,8 hPa 0,0 l/m 2 min 0 min 101 W/m 6,4 km/h (2 Bft) 95,74 %
16.11.2022 15:12 13,2 C 12,2 C 8,9 C 79 % 999,8 hPa 0,0 l/m 0 min 0 min 87 W/m 9,7 km/h (2 Bft) 91,49 %
16.11.2022 15:14 13,1 C 12,2 C 8,3 C 80 % 999,9 hPa 0,0 l/m 0 min 0 min 63 W/m 3,2 km/h (1 Bft) 93,62 %
16.11.2022 15:16 13,1 C 12,2 C 8,3 C 80 % 999,8 hPa 0,0 l/m 0 min 0 min 48 W/m 6,4 km/h (2 Bft) 95,74 %
16.11.2022 15:18 13,1 C 12,2 C 8,9 C 80 % 999,8 hPa 0,0 l/m 0 min 0 min 41 W/m 12,9 km/h (3 Bft) 95,74 %
16.11.2022 15:20 13,1 C 12,2 C 8,9 C 80 % 999,8 hPa 0,0 l/m 0 min 0 min 39 W/m 6,4 km/h (2 Bft) 91,30 %
16.11.2022 15:22 13,1 C 12,2 C 8,9 C 80 % 999,8 hPa 0,0 l/m 0 min 0 min 39 W/m 12,9 km/h (3 Bft) 95,74 %
16.11.2022 15:24 13,1 C 12,2 C 8,3 C 80 % 999,8 hPa 0,0 l/m 0 min 0 min 37 W/m 6,4 km/h (2 Bft) 93,62 %
16.11.2022 15:26 13,1 C 12,2 C 8,3 C 80 % 999,8 hPa 0,0 l/m 0 min 0 min 36 W/m 6,4 km/h (2 Bft) 89,36 %
16.11.2022 15:28 13,0 C 12,2 C 8,3 C 81 % 999,8 hPa 0,0 l/m 0 min 0 min 34 W/m 6,4 km/h (2 Bft) 87,23 %
16.11.2022 15:30 13,0 C 12,2 C 8,3 C 81 % 999,8 hPa 0,0 l/m 0 min 0 min 33 W/m 9,7 km/h (2 Bft) 89,36 %
16.11.2022 15:32 13,0 C 12,2 C 8,3 C 81 % 999,8 hPa 0,0 l/m 0 min 0 min 33 W/m 6,4 km/h (2 Bft) 89,13 %
16.11.2022 15:34 12,9 C 12,2 C 8,3 C 81 % 999,8 hPa 0,0 l/m 0 min 0 min 32 W/m 6,4 km/h (2 Bft) 97,87 %
16.11.2022 15:36 12,9 C 12,2 C 8,3 C 81 % 999,8 hPa 0,0 l/m 0 min 0 min 30 W/m 12,9 km/h (3 Bft) 80,85 %
16.11.2022 15:38 12,9 C 12,2 C 8,3 C 81 % 999,8 hPa 0,0 l/m 0 min 0 min 29 W/m 12,9 km/h (3 Bft) 80,85 %
16.11.2022 15:40 12,9 C 12,2 C 8,3 C 81 % 999,8 hPa 0,0 l/m 0 min 0 min 28 W/m 6,4 km/h (2 Bft) 95,74 %
16.11.2022 15:42 12,8 C 12,2 C 8,3 C 81 % 999,8 hPa 0,0 l/m 0 min 0 min 26 W/m 6,4 km/h (2 Bft) 82,61 %
16.11.2022 15:44 12,8 C 12,2 C 8,3 C 81 % 999,7 hPa 0,0 l/m 0 min 0 min 25 W/m 6,4 km/h (2 Bft) 95,74 %
16.11.2022 15:46 12,8 C 12,2 C 8,3 C 81 % 999,7 hPa 0,0 l/m 0 min 0 min 25 W/m 6,4 km/h (2 Bft) 93,62 %
16.11.2022 15:48 12,8 C 11,7 C 8,3 C 81 % 999,7 hPa 0,0 l/m 0 min 0 min 23 W/m 6,4 km/h (2 Bft) 97,87 %
16.11.2022 15:50 12,8 C 11,7 C 8,3 C 81 % 999,7 hPa 0,0 l/m 0 min 0 min 22 W/m 6,4 km/h (2 Bft) 97,87 %
16.11.2022 15:52 12,7 C 11,7 C 8,3 C 81 % 999,6 hPa 0,0 l/m 0 min 0 min 20 W/m 12,9 km/h (3 Bft) 95,74 %
16.11.2022 15:54 12,7 C 11,7 C 8,3 C 81 % 999,6 hPa 0,0 l/m 0 min 0 min 19 W/m 12,9 km/h (3 Bft) 76,09 %
16.11.2022 15:56 12,7 C 11,7 C 8,3 C 81 % 999,6 hPa 0,0 l/m 0 min 0 min 18 W/m 6,4 km/h (2 Bft) 70,21 %
16.11.2022 15:58 12,6 C 11,7 C 7,8 C 81 % 999,6 hPa 0,0 l/m 0 min 0 min 16 W/m 16,1 km/h (3 Bft) 87,23 %
16.11.2022 16:00 12,6 C 11,7 C 7,8 C 81 % 999,6 hPa 0,0 l/m 0 min 0 min 16 W/m 12,9 km/h (3 Bft) 95,74 %
16.11.2022 16:02 12,6 C 11,7 C 7,8 C 81 % 999,6 hPa 0,0 l/m 0 min 0 min 16 W/m 12,9 km/h (3 Bft) 87,23 %
16.11.2022 16:04 12,5 C 11,7 C 7,8 C 80 % 999,6 hPa 0,0 l/m 0 min 0 min 15 W/m 12,9 km/h (3 Bft) 100,00 %
16.11.2022 16:06 12,4 C 11,1 C 7,8 C 80 % 999,5 hPa 0,0 l/m 0 min 0 min 14 W/m 12,9 km/h (3 Bft) 98,15 %
16.11.2022 16:08 12,4 C 11,1 C 7,8 C 80 % 999,5 hPa 0,0 l/m 0 min 0 min 14 W/m 3,2 km/h (1 Bft) 97,14 %
16.11.2022 16:10 12,4 C 11,1 C 7,8 C 80 % 999,5 hPa 0,0 l/m 0 min 0 min 12 W/m 6,4 km/h (2 Bft) 100,00 %
16.11.2022 16:12 12,3 C 11,1 C 7,8 C 80 % 999,5 hPa 0,0 l/m 0 min 0 min 12 W/m 6,4 km/h (2 Bft) 97,83 %
16.11.2022 16:14 12,3 C 11,1 C 7,8 C 81 % 999,6 hPa 0,0 l/m 0 min 0 min 11 W/m 6,4 km/h (2 Bft) 100,00 %
16.11.2022 16:16 12,2 C 11,1 C 7,8 C 81 % 999,6 hPa 0,0 l/m 0 min 0 min 11 W/m 6,4 km/h (2 Bft) 97,87 %
16.11.2022 16:18 12,2 C 10,6 C 7,8 C 81 % 999,5 hPa 0,0 l/m 0 min 0 min 11 W/m 3,2 km/h (1 Bft) 100,00 %
16.11.2022 16:20 12,2 C 10,6 C 7,2 C 81 % 999,4 hPa 0,0 l/m 0 min 0 min 9 W/m 6,4 km/h (2 Bft) 100,00 %
16.11.2022 16:22 12,1 C 10,6 C 7,2 C 81 % 999,4 hPa 0,0 l/m 0 min 0 min 9 W/m 0,0 km/h (0 Bft) 100,00 %
16.11.2022 16:24 12,1 C 10,6 C 7,2 C 81 % 999,4 hPa 0,0 l/m 0 min 0 min 9 W/m 6,4 km/h (2 Bft) 97,83 %
16.11.2022 16:26 12,1 C 10,6 C 7,2 C 81 % 999,4 hPa 0,0 l/m 0 min 0 min 7 W/m 3,2 km/h (1 Bft) 100,00 %
16.11.2022 16:28 12,0 C 10,6 C 7,2 C 82 % 999,4 hPa 0,0 l/m 0 min 0 min 7 W/m 3,2 km/h (1 Bft) 93,62 %
16.11.2022 16:30 11,9 C 10,6 C 7,2 C 82 % 999,4 hPa 0,0 l/m 0 min 0 min 7 W/m 6,4 km/h (2 Bft) 95,74 %
16.11.2022 16:32 11,9 C 10,6 C 7,2 C 82 % 999,4 hPa 0,0 l/m 0 min 0 min 6 W/m 3,2 km/h (1 Bft) 100,00 %
16.11.2022 16:34 11,8 C 10,0 C 7,2 C 82 % 999,4 hPa 0,0 l/m 0 min 0 min 5 W/m 6,4 km/h (2 Bft) 100,00 %
16.11.2022 16:36 11,8 C 10,6 C 7,2 C 82 % 999,4 hPa 0,0 l/m 0 min 0 min 5 W/m 6,4 km/h (2 Bft) 97,83 %
16.11.2022 16:38 11,7 C 10,0 C 7,2 C 83 % 999,3 hPa 0,0 l/m 0 min 0 min 5 W/m 3,2 km/h (1 Bft) 97,87 %
16.11.2022 16:40 11,7 C 10,0 C 7,2 C 83 % 999,2 hPa 0,0 l/m 0 min 0 min 1 W/m 16,1 km/h (3 Bft) 97,87 %
16.11.2022 16:42 11,6 C 10,0 C 7,2 C 83 % 999,2 hPa 0,0 l/m 0 min 0 min 0 W/m 3,2 km/h (1 Bft) 95,74 %
16.11.2022 16:44 11,6 C 10,0 C 6,7 C 83 % 999,2 hPa 0,0 l/m 0 min 0 min 0 W/m 3,2 km/h (1 Bft) 97,87 %
16.11.2022 16:46 11,5 C 10,0 C 6,7 C 84 % 999,2 hPa 0,0 l/m 0 min 0 min 0 W/m 6,4 km/h (2 Bft) 97,87 %
16.11.2022 16:48 11,5 C 10,0 C 6,7 C 84 % 999,2 hPa 0,0 l/m 0 min 0 min 0 W/m 3,2 km/h (1 Bft) 97,83 %
16.11.2022 16:50 11,4 C 10,0 C 6,7 C 84 % 999,1 hPa 0,0 l/m 0 min 0 min 0 W/m 3,2 km/h (1 Bft) 97,87 %
16.11.2022 16:52 11,4 C 10,0 C 6,7 C 84 % 999,2 hPa 0,0 l/m 0 min 0 min 0 W/m 12,9 km/h (3 Bft) 97,87 %
16.11.2022 16:54 11,3 C 10,0 C 6,7 C 84 % 999,1 hPa 0,0 l/m 0 min 0 min 0 W/m 12,9 km/h (3 Bft) 97,87 %
16.11.2022 16:56 11,3 C 10,0 C 6,7 C 84 % 999,0 hPa 0,0 l/m 0 min 0 min 0 W/m 9,7 km/h (2 Bft) 97,87 %
16.11.2022 16:58 11,2 C 9,4 C 6,7 C 85 % 999,0 hPa 0,0 l/m 0 min 0 min 0 W/m 6,4 km/h (2 Bft) 97,87 %
16.11.2022 17:00 11,2 C 9,4 C 6,7 C 85 % 999,1 hPa 0,0 l/m 0 min 0 min 0 W/m 6,4 km/h (2 Bft) 97,83 %
16.11.2022 17:02 11,1 C 9,4 C 6,7 C 85 % 999,1 hPa 0,0 l/m 0 min 0 min 0 W/m 6,4 km/h (2 Bft) 93,62 %
16.11.2022 17:04 11,1 C 9,4 C 6,7 C 85 % 999,1 hPa 0,0 l/m 0 min 0 min 0 W/m 6,4 km/h (2 Bft) 95,74 %
16.11.2022 17:06 11,0 C 9,4 C 6,7 C 85 % 999,0 hPa 0,0 l/m 0 min 0 min 0 W/m 3,2 km/h (1 Bft) 96,55 %
16.11.2022 17:08 10,9 C 9,4 C 6,7 C 86 % 999,0 hPa 0,0 l/m 0 min 0 min 0 W/m 6,4 km/h (2 Bft) 94,44 %
16.11.2022 17:10 10,9 C 9,4 C 6,7 C 86 % 999,0 hPa 0,0 l/m 0 min 0 min 0 W/m 6,4 km/h (2 Bft) 95,74 %
16.11.2022 17:12 10,8 C 9,4 C 6,7 C 86 % 999,1 hPa 0,0 l/m 0 min 0 min 0 W/m 12,9 km/h (3 Bft) 97,83 %
16.11.2022 17:14 10,8 C 9,4 C 6,7 C 86 % 999,0 hPa 0,0 l/m 0 min 0 min 0 W/m 6,4 km/h (2 Bft) 97,87 %
16.11.2022 17:16 10,7 C 9,4 C 6,7 C 86 % 999,1 hPa 0,0 l/m 0 min 0 min 0 W/m 12,9 km/h (3 Bft) 98,00 %
16.11.2022 17:18 10,7 C 9,4 C 6,7 C 86 % 999,0 hPa 0,0 l/m 0 min 0 min 0 W/m 12,9 km/h (3 Bft) 97,87 %
16.11.2022 17:20 10,7 C 9,4 C 6,7 C 87 % 999,0 hPa 0,0 l/m 0 min 0 min 0 W/m 6,4 km/h (2 Bft) 95,74 %
16.11.2022 17:22 10,6 C 9,4 C 6,7 C 87 % 998,9 hPa 0,0 l/m 0 min 0 min 0 W/m 6,4 km/h (2 Bft) 97,83 %
16.11.2022 17:24 10,6 C 9,4 C 6,7 C 87 % 998,8 hPa 0,0 l/m 0 min 0 min 0 W/m 3,2 km/h (1 Bft) 97,87 %
16.11.2022 17:26 10,6 C 9,4 C 6,1 C 87 % 998,9 hPa 0,0 l/m 0 min 0 min 0 W/m 6,4 km/h (2 Bft) 97,87 %
16.11.2022 17:28 10,6 C 9,4 C 6,1 C 87 % 998,8 hPa 0,0 l/m 0 min 0 min 0 W/m 6,4 km/h (2 Bft) 97,87 %
16.11.2022 17:30 10,5 C 9,4 C 6,1 C 87 % 998,9 hPa 0,0 l/m 0 min 0 min 0 W/m 3,2 km/h (1 Bft) 97,87 %
16.11.2022 17:32 10,4 C 9,4 C 6,1 C 87 % 998,8 hPa 0,0 l/m 0 min 0 min 0 W/m 12,9 km/h (3 Bft) 97,87 %
16.11.2022 17:34 10,4 C 9,4 C 6,1 C 87 % 998,8 hPa 0,0 l/m 0 min 0 min 0 W/m 6,4 km/h (2 Bft) 97,83 %
16.11.2022 17:36 10,4 C 9,4 C 6,1 C 87 % 998,8 hPa 0,0 l/m 0 min 0 min 0 W/m 3,2 km/h (1 Bft) 95,74 %
16.11.2022 17:38 10,3 C 9,4 C 6,1 C 88 % 998,8 hPa 0,0 l/m 0 min 0 min 0 W/m 3,2 km/h (1 Bft) 97,87 %
16.11.2022 17:40 10,3 C 8,9 C 6,1 C 88 % 998,8 hPa 0,0 l/m 0 min 0 min 0 W/m 3,2 km/h (1 Bft) 95,74 %
16.11.2022 17:42 10,3 C 8,9 C 6,1 C 88 % 998,7 hPa 0,0 l/m 0 min 0 min 0 W/m 6,4 km/h (2 Bft) 93,62 %
16.11.2022 17:44 10,2 C 8,9 C 6,1 C 88 % 998,7 hPa 0,0 l/m 0 min 0 min 0 W/m 6,4 km/h (2 Bft) 97,87 %
16.11.2022 17:46 10,2 C 8,9 C 6,1 C 88 % 998,7 hPa 0,0 l/m 0 min 0 min 0 W/m 3,2 km/h (1 Bft) 93,48 %
16.11.2022 17:48 10,2 C 8,9 C 6,1 C 88 % 998,7 hPa 0,0 l/m 0 min 0 min 0 W/m 12,9 km/h (3 Bft) 97,87 %
16.11.2022 17:50 10,1 C 8,9 C 6,1 C 88 % 998,7 hPa 0,0 l/m 0 min 0 min 0 W/m 6,4 km/h (2 Bft) 95,74 %
16.11.2022 17:52 10,1 C 8,9 C 6,1 C 88 % 998,6 hPa 0,0 l/m 0 min 0 min 0 W/m 12,9 km/h (3 Bft) 97,87 %
16.11.2022 17:54 10,1 C 8,9 C 6,1 C 89 % 998,6 hPa 0,0 l/m 0 min 0 min 0 W/m 6,4 km/h (2 Bft) 97,87 %
16.11.2022 17:56 10,1 C 8,9 C 6,1 C 89 % 998,6 hPa 0,0 l/m 0 min 0 min 0 W/m 12,9 km/h (3 Bft) 95,74 %
16.11.2022 17:58 10,1 C 8,9 C 6,1 C 89 % 998,6 hPa 0,0 l/m 0 min 0 min 0 W/m 12,9 km/h (3 Bft) 97,83 %
16.11.2022 18:00 10,1 C 8,9 C 6,1 C 89 % 998,5 hPa 0,0 l/m 0 min 0 min 0 W/m 12,9 km/h (3 Bft) 93,62 %
16.11.2022 18:02 10,1 C 9,4 C 6,1 C 89 % 998,5 hPa 0,0 l/m 0 min 0 min 0 W/m 12,9 km/h (3 Bft) 97,87 %
16.11.2022 18:06 10,0 C 9,4 C 6,1 C 89 % 998,5 hPa 0,0 l/m 0 min 0 min 0 W/m 6,4 km/h (2 Bft) 96,67 %
16.11.2022 18:08 10,0 C 9,4 C 6,1 C 89 % 998,5 hPa 0,0 l/m 0 min 0 min 0 W/m 9,7 km/h (2 Bft) 97,78 %
16.11.2022 18:10 10,0 C 9,4 C 6,1 C 89 % 998,5 hPa 0,0 l/m 0 min 0 min 0 W/m 6,4 km/h (2 Bft) 97,87 %
16.11.2022 18:12 10,0 C 9,4 C 6,1 C 89 % 998,5 hPa 0,0 l/m 0 min 0 min 0 W/m 3,2 km/h (1 Bft) 97,87 %
16.11.2022 18:14 10,0 C 9,4 C 6,1 C 89 % 998,5 hPa 0,0 l/m 0 min 0 min 0 W/m 6,4 km/h (2 Bft) 95,74 %
16.11.2022 18:16 10,0 C 9,4 C 6,1 C 89 % 998,5 hPa 0,0 l/m 0 min 0 min 0 W/m 6,4 km/h (2 Bft) 97,87 %
16.11.2022 18:18 10,0 C 9,4 C 6,1 C 90 % 998,4 hPa 0,0 l/m 0 min 0 min 0 W/m 12,9 km/h (3 Bft) 97,87 %
16.11.2022 18:20 9,9 C 9,4 C 6,1 C 90 % 998,5 hPa 0,0 l/m 0 min 0 min 0 W/m 6,4 km/h (2 Bft) 95,65 %
16.11.2022 18:22 9,9 C 9,4 C 6,1 C 90 % 998,5 hPa 0,0 l/m 0 min 0 min 0 W/m 6,4 km/h (2 Bft) 95,74 %
16.11.2022 18:24 9,9 C 8,9 C 6,1 C 90 % 998,4 hPa 0,0 l/m 0 min 0 min 0 W/m 6,4 km/h (2 Bft) 97,87 %
16.11.2022 18:26 9,9 C 8,9 C 6,1 C 90 % 998,4 hPa 0,0 l/m 0 min 0 min 0 W/m 6,4 km/h (2 Bft) 97,87 %
16.11.2022 18:28 9,9 C 8,9 C 6,1 C 90 % 998,4 hPa 0,0 l/m 0 min 0 min 0 W/m 6,4 km/h (2 Bft) 95,74 %
16.11.2022 18:30 9,9 C 8,9 C 6,1 C 90 % 998,3 hPa 0,0 l/m 0 min 0 min 0 W/m 6,4 km/h (2 Bft) 93,62 %
16.11.2022 18:32 9,9 C 8,9 C 6,1 C 90 % 998,3 hPa 0,0 l/m 0 min 0 min 0 W/m 6,4 km/h (2 Bft) 95,65 %
16.11.2022 18:34 9,8 C 8,9 C 6,1 C 90 % 998,4 hPa 0,0 l/m 0 min 0 min 0 W/m 12,9 km/h (3 Bft) 95,74 %
16.11.2022 18:36 9,8 C 8,9 C 6,1 C 90 % 998,4 hPa 0,0 l/m 0 min 0 min 0 W/m 3,2 km/h (1 Bft) 95,74 %
16.11.2022 18:38 9,8 C 8,9 C 6,1 C 90 % 998,3 hPa 0,0 l/m 0 min 0 min 0 W/m 3,2 km/h (1 Bft) 95,74 %
16.11.2022 18:40 9,8 C 8,9 C 6,1 C 90 % 998,3 hPa 0,0 l/m 0 min 0 min 0 W/m 6,4 km/h (2 Bft) 91,49 %
16.11.2022 18:42 9,8 C 8,9 C 6,1 C 90 % 998,3 hPa 0,0 l/m 0 min 0 min 0 W/m 3,2 km/h (1 Bft) 95,74 %
16.11.2022 18:44 9,8 C 8,9 C 6,1 C 90 % 998,3 hPa 0,0 l/m 0 min 0 min 0 W/m 6,4 km/h (2 Bft) 95,65 %
16.11.2022 18:46 9,8 C 8,9 C 6,1 C 90 % 998,3 hPa 0,0 l/m 0 min 0 min 0 W/m 19,3 km/h (3 Bft) 95,74 %
16.11.2022 18:48 9,8 C 8,9 C 6,1 C 90 % 998,2 hPa 0,0 l/m 0 min 0 min 0 W/m 16,1 km/h (3 Bft) 95,74 %
16.11.2022 18:50 9,8 C 8,9 C 6,1 C 90 % 998,2 hPa 0,0 l/m 0 min 0 min 0 W/m 16,1 km/h (3 Bft) 97,87 %
16.11.2022 18:52 9,8 C 8,9 C 6,1 C 90 % 998,2 hPa 0,0 l/m 0 min 0 min 0 W/m 6,4 km/h (2 Bft) 93,62 %
16.11.2022 18:54 9,8 C 8,9 C 6,1 C 90 % 998,1 hPa 0,0 l/m 0 min 0 min 0 W/m 12,9 km/h (3 Bft) 97,87 %
16.11.2022 18:56 9,8 C 9,4 C 6,1 C 90 % 998,1 hPa 0,0 l/m 0 min 0 min 0 W/m 12,9 km/h (3 Bft) 95,65 %
16.11.2022 18:58 9,8 C 9,4 C 6,1 C 90 % 998,0 hPa 0,0 l/m 0 min 0 min 0 W/m 9,7 km/h (2 Bft) 97,87 %
16.11.2022 19:00 9,8 C 9,4 C 6,1 C 90 % 998,1 hPa 0,0 l/m 0 min 0 min 0 W/m 12,9 km/h (3 Bft) 100,00 %
16.11.2022 19:02 9,8 C 9,4 C 6,1 C 90 % 998,0 hPa 0,0 l/m 0 min 0 min 0 W/m 6,4 km/h (2 Bft) 100,00 %
16.11.2022 19:04 9,8 C 8,9 C 6,1 C 90 % 997,9 hPa 0,0 l/m 0 min 0 min 0 W/m 6,4 km/h (2 Bft) 97,87 %
16.11.2022 19:06 9,8 C 8,9 C 6,1 C 90 % 997,9 hPa 0,0 l/m 0 min 0 min 0 W/m 9,7 km/h (2 Bft) 97,87 %
16.11.2022 19:08 9,8 C 8,9 C 6,1 C 90 % 997,9 hPa 0,0 l/m 0 min 0 min 0 W/m 3,2 km/h (1 Bft) 100,00 %
16.11.2022 19:10 9,8 C 9,4 C 6,1 C 90 % 997,9 hPa 0,0 l/m 0 min 0 min 0 W/m 6,4 km/h (2 Bft) 97,87 %
16.11.2022 19:12 9,8 C 9,4 C 6,1 C 90 % 997,9 hPa 0,0 l/m 0 min 0 min 0 W/m 12,9 km/h (3 Bft) 100,00 %
16.11.2022 19:14 9,9 C 9,4 C 6,1 C 91 % 997,9 hPa 0,0 l/m 0 min 0 min 0 W/m 12,9 km/h (3 Bft) 100,00 %
16.11.2022 19:16 9,9 C 9,4 C 6,1 C 90 % 997,9 hPa 0,0 l/m 0 min 0 min 0 W/m 3,2 km/h (1 Bft) 97,87 %
16.11.2022 19:18 9,9 C 9,4 C 6,1 C 90 % 997,9 hPa 0,0 l/m 0 min 0 min 0 W/m 6,4 km/h (2 Bft) 97,83 %
16.11.2022 19:20 9,9 C 9,4 C 6,1 C 90 % 997,9 hPa 0,0 l/m 0 min 0 min 0 W/m 6,4 km/h (2 Bft) 100,00 %
16.11.2022 19:22 9,9 C 9,4 C 6,1 C 90 % 997,9 hPa 0,0 l/m 0 min 0 min 0 W/m 3,2 km/h (1 Bft) 97,87 %
16.11.2022 19:24 9,9 C 9,4 C 6,1 C 90 % 997,9 hPa 0,0 l/m 0 min 0 min 0 W/m 12,9 km/h (3 Bft) 100,00 %
16.11.2022 19:26 9,9 C 8,9 C 6,1 C 90 % 997,9 hPa 0,0 l/m 0 min 0 min 0 W/m 6,4 km/h (2 Bft) 100,00 %
16.11.2022 19:28 9,9 C 8,9 C 6,1 C 90 % 997,9 hPa 0,0 l/m 0 min 0 min 0 W/m 12,9 km/h (3 Bft) 95,74 %
16.11.2022 19:30 9,9 C 8,9 C 6,1 C 90 % 997,9 hPa 0,0 l/m 0 min 0 min 0 W/m 12,9 km/h (3 Bft) 97,87 %
16.11.2022 19:32 9,8 C 8,9 C 6,1 C 90 % 997,8 hPa 0,0 l/m 0 min 0 min 0 W/m 12,9 km/h (3 Bft) 97,83 %
16.11.2022 19:34 9,8 C 8,9 C 6,1 C 90 % 997,8 hPa 0,0 l/m 0 min 0 min 0 W/m 12,9 km/h (3 Bft) 95,74 %
16.11.2022 19:36 9,8 C 8,9 C 6,1 C 90 % 997,8 hPa 0,0 l/m 0 min 0 min 0 W/m 6,4 km/h (2 Bft) 95,74 %
16.11.2022 19:38 9,8 C 8,9 C 6,1 C 90 % 997,8 hPa 0,0 l/m 0 min 0 min 0 W/m 6,4 km/h (2 Bft) 97,87 %
16.11.2022 19:40 9,8 C 8,9 C 6,1 C 90 % 997,9 hPa 0,0 l/m 0 min 0 min 0 W/m 9,7 km/h (2 Bft) 95,74 %
16.11.2022 19:42 9,8 C 8,9 C 6,1 C 90 % 997,9 hPa 0,0 l/m 0 min 0 min 0 W/m 6,4 km/h (2 Bft) 97,83 %
16.11.2022 19:44 9,8 C 8,9 C 6,1 C 90 % 998,0 hPa 0,0 l/m 0 min 0 min 0 W/m 9,7 km/h (2 Bft) 97,87 %
16.11.2022 19:46 9,8 C 8,9 C 6,1 C 90 % 997,9 hPa 0,0 l/m 0 min 0 min 0 W/m 6,4 km/h (2 Bft) 95,74 %
16.11.2022 19:48 9,8 C 8,9 C 6,1 C 90 % 998,0 hPa 0,0 l/m 0 min 0 min 0 W/m 6,4 km/h (2 Bft) 97,87 %
16.11.2022 19:50 9,8 C 8,9 C 6,1 C 90 % 998,0 hPa 0,0 l/m 0 min 0 min 0 W/m 9,7 km/h (2 Bft) 95,74 %
16.11.2022 19:52 9,8 C 8,9 C 6,1 C 90 % 998,0 hPa 0,0 l/m 0 min 0 min 0 W/m 6,4 km/h (2 Bft) 93,62 %
16.11.2022 19:54 9,8 C 8,9 C 6,1 C 90 % 998,0 hPa 0,0 l/m 0 min 0 min 0 W/m 12,9 km/h (3 Bft) 97,83 %
16.11.2022 19:56 9,8 C 8,9 C 6,1 C 90 % 998,0 hPa 0,0 l/m 0 min 0 min 0 W/m 6,4 km/h (2 Bft) 97,87 %
16.11.2022 19:58 9,8 C 8,9 C 6,1 C 90 % 997,9 hPa 0,0 l/m 0 min 0 min 0 W/m 16,1 km/h (3 Bft) 95,74 %
16.11.2022 20:00 9,7 C 8,9 C 6,1 C 90 % 997,8 hPa 0,0 l/m 0 min 0 min 0 W/m 6,4 km/h (2 Bft) 97,83 %
16.11.2022 20:02 9,7 C 8,9 C 6,1 C 90 % 997,7 hPa 0,0 l/m 0 min 0 min 0 W/m 9,7 km/h (2 Bft) 95,74 %
16.11.2022 20:04 9,7 C 8,9 C 6,1 C 90 % 997,7 hPa 0,0 l/m 0 min 0 min 0 W/m 12,9 km/h (3 Bft) 95,74 %
16.11.2022 20:06 9,7 C 8,9 C 6,1 C 90 % 997,7 hPa 0,0 l/m 0 min 0 min 0 W/m 12,9 km/h (3 Bft) 95,65 %
16.11.2022 20:08 9,7 C 8,9 C 6,1 C 91 % 997,7 hPa 0,0 l/m 0 min 0 min 0 W/m 3,2 km/h (1 Bft) 97,87 %
16.11.2022 20:10 9,7 C 8,9 C 6,1 C 91 % 997,8 hPa 0,0 l/m 0 min 0 min 0 W/m 0,0 km/h (0 Bft) 100,00 %
16.11.2022 20:12 9,7 C 8,9 C 6,1 C 91 % 997,8 hPa 0,0 l/m 0 min 0 min 0 W/m 6,4 km/h (2 Bft) 100,00 %
16.11.2022 20:14 9,7 C 8,9 C 6,1 C 91 % 997,8 hPa 0,0 l/m 0 min 0 min 0 W/m 16,1 km/h (3 Bft) 97,87 %
16.11.2022 20:16 9,7 C 8,9 C 6,1 C 91 % 997,7 hPa 0,0 l/m 0 min 0 min 0 W/m 22,5 km/h (4 Bft) 95,74 %
16.11.2022 20:18 9,8 C 8,9 C 6,1 C 91 % 997,7 hPa 0,0 l/m 0 min 0 min 0 W/m 12,9 km/h (3 Bft) 97,83 %
16.11.2022 20:20 9,8 C 9,4 C 6,1 C 91 % 997,7 hPa 0,0 l/m 0 min 0 min 0 W/m 16,1 km/h (3 Bft) 97,87 %
16.11.2022 20:22 9,8 C 9,4 C 6,1 C 91 % 997,6 hPa 0,0 l/m 0 min 0 min 0 W/m 12,9 km/h (3 Bft) 97,87 %
16.11.2022 20:24 9,8 C 9,4 C 6,1 C 91 % 997,6 hPa 0,0 l/m 0 min 0 min 0 W/m 16,1 km/h (3 Bft) 97,87 %
16.11.2022 20:26 9,8 C 9,4 C 6,1 C 91 % 997,5 hPa 0,0 l/m 0 min 0 min 0 W/m 6,4 km/h (2 Bft) 97,87 %
16.11.2022 20:28 9,9 C 9,4 C 6,1 C 91 % 997,5 hPa 0,0 l/m 0 min 0 min 0 W/m 6,4 km/h (2 Bft) 97,87 %
16.11.2022 20:30 9,9 C 9,4 C 6,1 C 91 % 997,5 hPa 0,0 l/m 0 min 0 min 0 W/m 12,9 km/h (3 Bft) 97,87 %
16.11.2022 20:32 9,9 C 9,4 C 6,1 C 91 % 997,6 hPa 0,0 l/m 0 min 0 min 0 W/m 16,1 km/h (3 Bft) 97,83 %
16.11.2022 20:34 9,9 C 9,4 C 6,1 C 91 % 997,5 hPa 0,0 l/m 0 min 0 min 0 W/m 16,1 km/h (3 Bft) 97,87 %
16.11.2022 20:36 9,9 C 9,4 C 6,7 C 91 % 997,4 hPa 0,0 l/m 0 min 0 min 0 W/m 12,9 km/h (3 Bft) 97,87 %
16.11.2022 20:38 9,9 C 9,4 C 6,1 C 91 % 997,4 hPa 0,0 l/m 0 min 0 min 0 W/m 12,9 km/h (3 Bft) 97,87 %
16.11.2022 20:40 10,0 C 9,4 C 6,7 C 91 % 997,4 hPa 0,0 l/m 0 min 0 min 0 W/m 19,3 km/h (3 Bft) 97,87 %
16.11.2022 20:42 10,0 C 9,4 C 6,7 C 91 % 997,4 hPa 0,0 l/m 0 min 0 min 0 W/m 19,3 km/h (3 Bft) 97,83 %
16.11.2022 20:44 10,0 C 9,4 C 6,7 C 91 % 997,3 hPa 0,0 l/m 0 min 0 min 0 W/m 12,9 km/h (3 Bft) 100,00 %
16.11.2022 20:46 10,0 C 9,4 C 6,7 C 91 % 997,3 hPa 0,0 l/m 0 min 0 min 0 W/m 19,3 km/h (3 Bft) 97,87 %
16.11.2022 20:48 10,1 C 9,4 C 6,7 C 91 % 997,3 hPa 0,0 l/m 0 min 0 min 0 W/m 12,9 km/h (3 Bft) 100,00 %
16.11.2022 20:50 10,1 C 9,4 C 6,7 C 91 % 997,2 hPa 0,0 l/m 0 min 0 min 0 W/m 16,1 km/h (3 Bft) 100,00 %
16.11.2022 20:52 10,1 C 9,4 C 6,7 C 91 % 997,2 hPa 0,0 l/m 0 min 0 min 0 W/m 16,1 km/h (3 Bft) 100,00 %
16.11.2022 20:54 10,1 C 9,4 C 6,7 C 91 % 997,2 hPa 0,0 l/m 0 min 0 min 0 W/m 9,7 km/h (2 Bft) 100,00 %
16.11.2022 20:56 10,1 C 9,4 C 6,7 C 91 % 997,1 hPa 0,0 l/m 0 min 0 min 0 W/m 9,7 km/h (2 Bft) 100,00 %
16.11.2022 20:58 10,1 C 9,4 C 6,7 C 91 % 997,1 hPa 0,0 l/m 0 min 0 min 0 W/m 12,9 km/h (3 Bft) 100,00 %
16.11.2022 21:00 10,1 C 9,4 C 6,7 C 91 % 997,1 hPa 0,0 l/m 0 min 0 min 0 W/m 3,2 km/h (1 Bft) 97,87 %
16.11.2022 21:02 10,1 C 9,4 C 6,7 C 91 % 997,1 hPa 0,0 l/m 0 min 0 min 0 W/m 6,4 km/h (2 Bft) 97,87 %
16.11.2022 21:04 10,1 C 9,4 C 6,7 C 91 % 997,0 hPa 0,0 l/m 0 min 0 min 0 W/m 12,9 km/h (3 Bft) 95,74 %
16.11.2022 21:06 10,1 C 9,4 C 6,7 C 91 % 996,9 hPa 0,0 l/m 0 min 0 min 0 W/m 12,9 km/h (3 Bft) 95,65 %
16.11.2022 21:08 10,1 C 9,4 C 6,7 C 91 % 996,9 hPa 0,0 l/m 0 min 0 min 0 W/m 12,9 km/h (3 Bft) 97,87 %
16.11.2022 21:10 10,1 C 9,4 C 6,7 C 92 % 996,9 hPa 0,0 l/m 0 min 0 min 0 W/m 16,1 km/h (3 Bft) 97,87 %
16.11.2022 21:12 10,1 C 9,4 C 6,7 C 91 % 996,8 hPa 0,0 l/m 0 min 0 min 0 W/m 16,1 km/h (3 Bft) 97,87 %
16.11.2022 21:14 10,1 C 9,4 C 6,7 C 91 % 996,7 hPa 0,0 l/m 0 min 0 min 0 W/m 19,3 km/h (3 Bft) 97,87 %
16.11.2022 21:15 10,1 C 9,4 C 6,7 C 92 % 996,7 hPa 0,0 l/m 0 min 0 min 0 W/m 19,3 km/h (3 Bft) 100,00 %
16.11.2022 21:18 10,1 C 9,4 C 6,7 C 91 % 996,7 hPa 0,0 l/m 0 min 0 min 0 W/m 6,4 km/h (2 Bft) 100,00 %
16.11.2022 21:20 10,1 C 9,4 C 6,7 C 91 % 996,7 hPa 0,0 l/m 0 min 0 min 0 W/m 6,4 km/h (2 Bft) 98,33 %
16.11.2022 21:22 10,2 C 9,4 C 6,7 C 91 % 996,6 hPa 0,0 l/m 0 min 0 min 0 W/m 12,9 km/h (3 Bft) 97,87 %
16.11.2022 21:24 10,2 C 9,4 C 6,7 C 91 % 996,6 hPa 0,0 l/m 0 min 0 min 0 W/m 19,3 km/h (3 Bft) 95,74 %
16.11.2022 21:26 10,2 C 9,4 C 6,7 C 91 % 996,5 hPa 0,0 l/m 0 min 0 min 0 W/m 16,1 km/h (3 Bft) 97,87 %
16.11.2022 21:28 10,2 C 9,4 C 6,7 C 91 % 996,5 hPa 0,0 l/m 0 min 0 min 0 W/m 9,7 km/h (2 Bft) 97,87 %
16.11.2022 21:30 10,2 C 9,4 C 6,7 C 91 % 996,4 hPa 0,0 l/m 0 min 0 min 0 W/m 25,7 km/h (4 Bft) 97,83 %
16.11.2022 21:32 10,2 C 9,4 C 6,7 C 91 % 996,3 hPa 0,0 l/m 0 min 0 min 0 W/m 19,3 km/h (3 Bft) 97,87 %
16.11.2022 21:34 10,2 C 9,4 C 6,7 C 91 % 996,3 hPa 0,0 l/m 0 min 0 min 0 W/m 19,3 km/h (3 Bft) 97,87 %
16.11.2022 21:36 10,2 C 9,4 C 6,7 C 91 % 996,3 hPa 0,0 l/m 0 min 0 min 0 W/m 16,1 km/h (3 Bft) 97,87 %
16.11.2022 21:38 10,2 C 9,4 C 6,7 C 91 % 996,3 hPa 0,0 l/m 0 min 0 min 0 W/m 19,3 km/h (3 Bft) 95,74 %
16.11.2022 21:40 10,2 C 9,4 C 6,7 C 91 % 996,3 hPa 0,0 l/m 0 min 0 min 0 W/m 12,9 km/h (3 Bft) 97,87 %
16.11.2022 21:42 10,2 C 9,4 C 6,7 C 91 % 996,3 hPa 0,0 l/m 0 min 0 min 0 W/m 12,9 km/h (3 Bft) 95,65 %
16.11.2022 21:44 10,2 C 9,4 C 6,7 C 91 % 996,3 hPa 0,0 l/m 0 min 0 min 0 W/m 12,9 km/h (3 Bft) 97,87 %
16.11.2022 21:46 10,2 C 9,4 C 6,7 C 91 % 996,3 hPa 0,0 l/m 0 min 0 min 0 W/m 16,1 km/h (3 Bft) 95,74 %
16.11.2022 21:48 10,3 C 9,4 C 6,7 C 91 % 996,2 hPa 0,0 l/m 0 min 0 min 0 W/m 19,3 km/h (3 Bft) 97,87 %
16.11.2022 21:50 10,3 C 9,4 C 6,7 C 91 % 996,3 hPa 0,0 l/m 0 min 0 min 0 W/m 12,9 km/h (3 Bft) 97,87 %
16.11.2022 21:52 10,3 C 9,4 C 6,7 C 91 % 996,3 hPa 0,0 l/m 0 min 0 min 0 W/m 12,9 km/h (3 Bft) 100,00 %
16.11.2022 21:54 10,3 C 9,4 C 6,7 C 91 % 996,3 hPa 0,0 l/m 0 min 0 min 0 W/m 12,9 km/h (3 Bft) 100,00 %
16.11.2022 21:56 10,3 C 9,4 C 6,7 C 91 % 996,2 hPa 0,0 l/m 0 min 0 min 0 W/m 22,5 km/h (4 Bft) 95,74 %
16.11.2022 21:58 10,3 C 9,4 C 6,7 C 91 % 996,2 hPa 0,0 l/m 0 min 0 min 0 W/m 19,3 km/h (3 Bft) 95,74 %
16.11.2022 22:00 10,3 C 9,4 C 6,7 C 91 % 996,1 hPa 0,0 l/m 0 min 0 min 0 W/m 16,1 km/h (3 Bft) 97,87 %
16.11.2022 22:02 10,3 C 9,4 C 6,7 C 91 % 996,1 hPa 0,0 l/m 0 min 0 min 0 W/m 19,3 km/h (3 Bft) 97,87 %
16.11.2022 22:04 10,3 C 10,0 C 6,7 C 91 % 996,1 hPa 0,0 l/m 0 min 0 min 0 W/m 12,9 km/h (3 Bft) 93,88 %
16.11.2022 22:06 10,4 C 10,0 C 6,7 C 91 % 996,0 hPa 0,0 l/m 0 min 0 min 0 W/m 16,1 km/h (3 Bft) 97,83 %
16.11.2022 22:08 10,4 C 10,0 C 6,7 C 91 % 996,1 hPa 0,0 l/m 0 min 0 min 0 W/m 12,9 km/h (3 Bft) 93,62 %
16.11.2022 22:10 10,4 C 10,0 C 6,7 C 91 % 996,0 hPa 0,0 l/m 0 min 0 min 0 W/m 22,5 km/h (4 Bft) 95,74 %
16.11.2022 22:12 10,4 C 10,0 C 6,7 C 91 % 995,9 hPa 0,0 l/m 0 min 0 min 0 W/m 19,3 km/h (3 Bft) 95,74 %
16.11.2022 22:14 10,4 C 10,0 C 6,7 C 91 % 995,9 hPa 0,0 l/m 0 min 0 min 0 W/m 16,1 km/h (3 Bft) 93,62 %
16.11.2022 22:16 10,4 C 10,0 C 6,7 C 91 % 995,8 hPa 0,0 l/m 0 min 0 min 0 W/m 19,3 km/h (3 Bft) 95,65 %
16.11.2022 22:18 10,4 C 10,0 C 6,7 C 91 % 995,8 hPa 0,0 l/m 0 min 0 min 0 W/m 22,5 km/h (4 Bft) 95,74 %
16.11.2022 22:20 10,4 C 10,0 C 6,7 C 91 % 995,7 hPa 0,0 l/m 0 min 0 min 0 W/m 22,5 km/h (4 Bft) 91,49 %
16.11.2022 22:22 10,4 C 10,0 C 6,7 C 91 % 995,7 hPa 0,0 l/m 0 min 0 min 0 W/m 19,3 km/h (3 Bft) 95,74 %
16.11.2022 22:24 10,4 C 10,0 C 6,7 C 91 % 995,7 hPa 0,0 l/m 0 min 0 min 0 W/m 22,5 km/h (4 Bft) 95,74 %
16.11.2022 22:26 10,5 C 10,0 C 6,7 C 91 % 995,7 hPa 0,0 l/m 0 min 0 min 0 W/m 19,3 km/h (3 Bft) 95,74 %
16.11.2022 22:28 10,5 C 10,0 C 6,7 C 91 % 995,6 hPa 0,0 l/m 0 min 0 min 0 W/m 19,3 km/h (3 Bft) 95,65 %
16.11.2022 22:30 10,5 C 10,0 C 6,7 C 91 % 995,6 hPa 0,0 l/m 0 min 0 min 0 W/m 25,7 km/h (4 Bft) 95,74 %
16.11.2022 22:32 10,5 C 10,0 C 6,7 C 91 % 995,5 hPa 0,0 l/m 0 min 0 min 0 W/m 16,1 km/h (3 Bft) 95,74 %
16.11.2022 22:34 10,5 C 10,0 C 6,7 C 91 % 995,5 hPa 0,0 l/m 0 min 0 min 0 W/m 25,7 km/h (4 Bft) 93,62 %
16.11.2022 22:36 10,5 C 10,0 C 6,7 C 91 % 995,3 hPa 0,0 l/m 0 min 0 min 0 W/m 22,5 km/h (4 Bft) 95,74 %
16.11.2022 22:38 10,5 C 10,0 C 6,7 C 91 % 995,3 hPa 0,0 l/m 0 min 0 min 0 W/m 22,5 km/h (4 Bft) 95,74 %
16.11.2022 22:40 10,5 C 10,0 C 6,7 C 91 % 995,3 hPa 0,0 l/m 0 min 0 min 0 W/m 16,1 km/h (3 Bft) 97,83 %
16.11.2022 22:42 10,5 C 10,0 C 6,7 C 91 % 995,2 hPa 0,0 l/m 0 min 0 min 0 W/m 25,7 km/h (4 Bft) 100,00 %
16.11.2022 22:44 10,5 C 10,0 C 6,7 C 91 % 995,2 hPa 0,0 l/m 0 min 0 min 0 W/m 12,9 km/h (3 Bft) 100,00 %
16.11.2022 22:46 10,5 C 10,0 C 6,7 C 91 % 995,2 hPa 0,0 l/m 0 min 0 min 0 W/m 25,7 km/h (4 Bft) 100,00 %
16.11.2022 22:48 10,5 C 10,0 C 6,7 C 91 % 995,1 hPa 0,0 l/m 0 min 0 min 0 W/m 19,3 km/h (3 Bft) 100,00 %
16.11.2022 22:50 10,5 C 10,0 C 6,7 C 91 % 995,2 hPa 0,0 l/m 0 min 0 min 0 W/m 25,7 km/h (4 Bft) 100,00 %
16.11.2022 22:52 10,6 C 10,0 C 6,7 C 91 % 995,1 hPa 0,0 l/m 0 min 0 min 0 W/m 16,1 km/h (3 Bft) 100,00 %
16.11.2022 22:54 10,5 C 10,0 C 6,7 C 91 % 995,0 hPa 0,0 l/m 0 min 0 min 0 W/m 16,1 km/h (3 Bft) 97,87 %
16.11.2022 22:56 10,6 C 10,0 C 6,7 C 91 % 995,0 hPa 0,0 l/m 0 min 0 min 0 W/m 12,9 km/h (3 Bft) 100,00 %
16.11.2022 22:58 10,6 C 10,0 C 6,7 C 91 % 995,0 hPa 0,0 l/m 0 min 0 min 0 W/m 12,9 km/h (3 Bft) 95,74 %
16.11.2022 23:00 10,6 C 10,0 C 6,7 C 91 % 994,9 hPa 0,0 l/m 0 min 0 min 0 W/m 22,5 km/h (4 Bft) 100,00 %
16.11.2022 23:02 10,6 C 10,0 C 6,7 C 91 % 994,9 hPa 0,0 l/m 0 min 0 min 0 W/m 25,7 km/h (4 Bft) 100,00 %
16.11.2022 23:04 10,6 C 10,0 C 6,7 C 91 % 994,9 hPa 0,0 l/m 0 min 0 min 0 W/m 22,5 km/h (4 Bft) 47,37 %
16.11.2022 23:06 10,6 C 10,0 C 6,7 C 90 % 994,8 hPa 0,0 l/m 0 min 0 min 0 W/m 22,5 km/h (4 Bft) 100,00 %
16.11.2022 23:08 10,6 C 10,0 C 6,7 C 90 % 994,8 hPa 0,0 l/m 0 min 0 min 0 W/m 12,9 km/h (3 Bft) 100,00 %
16.11.2022 23:10 10,6 C 10,0 C 6,7 C 90 % 994,8 hPa 0,0 l/m 0 min 0 min 0 W/m 22,5 km/h (4 Bft) 97,87 %
16.11.2022 23:12 10,6 C 10,0 C 6,7 C 90 % 994,8 hPa 0,0 l/m 0 min 0 min 0 W/m 22,5 km/h (4 Bft) 97,87 %
16.11.2022 23:14 10,6 C 10,0 C 6,7 C 90 % 994,8 hPa 0,0 l/m 0 min 0 min 0 W/m 22,5 km/h (4 Bft) 100,00 %
16.11.2022 23:16 10,6 C 10,0 C 6,7 C 90 % 994,8 hPa 0,0 l/m 0 min 0 min 0 W/m 22,5 km/h (4 Bft) 100,00 %
16.11.2022 23:18 10,6 C 10,0 C 6,7 C 90 % 994,7 hPa 0,0 l/m 0 min 0 min 0 W/m 22,5 km/h (4 Bft) 97,87 %
16.11.2022 23:20 10,6 C 10,0 C 6,7 C 90 % 994,6 hPa 0,0 l/m 0 min 0 min 0 W/m 12,9 km/h (3 Bft) 100,00 %
16.11.2022 23:22 10,6 C 10,0 C 6,7 C 90 % 994,6 hPa 0,0 l/m 0 min 2 min 0 W/m 19,3 km/h (3 Bft) 100,00 %
16.11.2022 23:24 10,6 C 10,0 C 6,7 C 90 % 994,6 hPa 0,0 l/m 0 min 0 min 0 W/m 12,9 km/h (3 Bft) 97,87 %
16.11.2022 23:26 10,6 C 10,0 C 6,7 C 90 % 994,5 hPa 0,0 l/m 0 min 2 min 0 W/m 16,1 km/h (3 Bft) 97,83 %
16.11.2022 23:28 10,6 C 10,0 C 6,1 C 90 % 994,5 hPa 0,0 l/m 0 min 2 min 0 W/m 16,1 km/h (3 Bft) 97,87 %
16.11.2022 23:30 10,6 C 9,4 C 6,1 C 91 % 994,4 hPa 0,0 l/m 0 min 2 min 0 W/m 19,3 km/h (3 Bft) 100,00 %
16.11.2022 23:32 10,6 C 9,4 C 6,1 C 91 % 994,4 hPa 0,0 l/m 0 min 2 min 0 W/m 19,3 km/h (3 Bft) 100,00 %
16.11.2022 23:34 10,6 C 9,4 C 6,1 C 91 % 994,4 hPa 0,0 l/m 0 min 2 min 0 W/m 12,9 km/h (3 Bft) 97,87 %
16.11.2022 23:36 10,6 C 9,4 C 6,1 C 91 % 994,3 hPa 0,2 l/m 0 min 2 min 0 W/m 22,5 km/h (4 Bft) 100,00 %
16.11.2022 23:38 10,5 C 9,4 C 6,1 C 91 % 994,3 hPa 0,0 l/m 0 min 2 min 0 W/m 19,3 km/h (3 Bft) 100,00 %
16.11.2022 23:40 10,5 C 9,4 C 6,1 C 91 % 994,2 hPa 0,0 l/m 0 min 2 min 0 W/m 16,1 km/h (3 Bft) 100,00 %
16.11.2022 23:42 10,5 C 9,4 C 6,1 C 91 % 994,1 hPa 0,0 l/m 0 min 2 min 0 W/m 16,1 km/h (3 Bft) 97,87 %
16.11.2022 23:44 10,5 C 9,4 C 5,6 C 92 % 994,0 hPa 0,0 l/m 0 min 2 min 0 W/m 22,5 km/h (4 Bft) 97,83 %
16.11.2022 23:46 10,4 C 9,4 C 5,6 C 92 % 993,9 hPa 0,0 l/m 0 min 2 min 0 W/m 22,5 km/h (4 Bft) 97,87 %
16.11.2022 23:48 10,4 C 9,4 C 5,6 C 92 % 993,9 hPa 0,0 l/m 0 min 2 min 0 W/m 16,1 km/h (3 Bft) 100,00 %
16.11.2022 23:50 10,4 C 9,4 C 5,6 C 92 % 993,9 hPa 0,0 l/m 0 min 2 min 0 W/m 16,1 km/h (3 Bft) 100,00 %
16.11.2022 23:52 10,4 C 9,4 C 5,6 C 92 % 993,8 hPa 0,2 l/m 0 min 2 min 0 W/m 22,5 km/h (4 Bft) 95,74 %
16.11.2022 23:54 10,4 C 9,4 C 5,6 C 92 % 993,8 hPa 0,0 l/m 0 min 2 min 0 W/m 22,5 km/h (4 Bft) 95,65 %
16.11.2022 23:56 10,4 C 9,4 C 5,6 C 92 % 993,7 hPa 0,0 l/m 0 min 2 min 0 W/m 29,0 km/h (5 Bft) 95,74 %
16.11.2022 23:58 10,4 C 9,4 C 5,6 C 93 % 993,7 hPa 0,0 l/m 0 min 2 min 0 W/m 16,1 km/h (3 Bft) 97,87 %
_ Min-Zeit 09:10 08:32 23:44 13:22 23:56 - - - - 07:00 06:38
Minimum _ 9,2 C 8,3 C 5,6 C 78 % 993,7 hPa - - - - 0,0 km/h (0 Bft) 6,52 %
_ Max-Zeit 13:26 13:04 12:48 03:12 10:38 00:10 14:16 04:05 14:04 11:56 00:46
Maximum _ 13,4 C 15,6 C 8,9 C 99 % 1002,0 hPa 0,2 l/m 4 min 5 min 394 W/m 29,0 km/h
S-SO (5 Bft)
100,00 %
Durchschnitt _ 10,9 C 10,3 C 7,2 C 92 % 999,3 hPa #5,8 l/m #1:48 h #5:44 h 88 W/m 11,6 km/h (2 Bft) 92,91 %
© 2022 W. Hausmann